GFSNE_sfc_30mbdewp_000.txt.gz
Dewpoint
59 59 59 58 57 56 55 54 51 48 48 50 49 50 49 49 50 50 47 48 48 49 49 47 47 44 43 41 40 40 38 37 35 34 34 34 34 33
58 58 58 59 58 56 55 54 53 52 50 50 50 50 51 51 50 47 44 44 46 47 47 46 44 42 41 39 39 37 35 34 33 33 33 33 33 32
56 57 57 57 57 56 56 55 54 53 52 52 52 52 49 47 45 41 42 43 45 46 45 43 42 40 38 38 36 34 34 33 32 32 32 32 32 31
53 55 54 55 56 57 56 55 54 54 53 52 52 53 48 44 42 40 41 40 41 43 43 41 40 38 36 36 33 33 33 32 31 31 31 30 30 30
51 52 52 54 54 54 56 56 54 54 54 54 52 53 49 42 40 40 39 38 38 39 40 38 37 35 35 32 32 32 32 31 31 30 30 29 29 30
50 51 52 53 53 54 54 55 55 55 54 53 53 52 45 41 41 40 37 38 36 37 36 34 34 34 33 31 31 30 30 31 30 30 29 29 30 29
47 48 50 51 52 53 54 54 55 55 54 53 52 51 44 40 41 41 41 38 38 33 30 28 30 29 28 29 30 30 30 29 29 29 29 29 29 28
46 47 48 50 51 52 53 53 54 54 53 52 53 51 48 46 44 42 41 37 34 32 28 27 26 26 27 25 25 25 26 26 28 29 29 29 28 28
45 46 47 49 50 51 52 53 54 53 54 54 53 52 50 48 45 42 41 38 34 29 27 22 24 23 24 24 25 25 26 26 28 29 29 28 27 27
43 43 46 47 49 50 51 51 52 53 54 53 53 54 53 50 46 44 41 32 28 28 25 13 23 21 24 24 25 24 25 26 27 29 28 27 27 27
41 41 42 44 45 48 49 49 49 52 49 49 52 53 53 50 45 38 34 32 25 23 23 20 20 20 21 21 21 22 22 25 27 27 26 25 26 27
37 37 40 42 43 44 46 47 47 49 45 42 43 44 45 44 42 40 33 30 27 25 26 19 20 19 16 20 19 20 20 23 21 20 21 22 22 24
29 32 36 40 41 42 42 44 44 48 43 39 36 34 34 33 33 33 33 31 29 24 26 23 22 22 20 19 19 18 18 17 18 19 19 18 19 22
30 31 34 37 39 41 42 43 45 47 38 34 32 31 30 30 31 31 31 30 28 26 26 22 21 21 19 19 16 17 17 18 18 18 18 19 18 19
31 32 36 38 40 41 42 42 44 41 35 32 32 30 30 30 30 29 29 28 28 27 25 23 20 21 19 18 17 19 19 19 20 20 18 17 16 16
32 34 38 41 42 42 42 42 41 37 34 33 32 31 30 28 27 27 25 25 24 24 26 25 23 22 21 21 20 19 19 19 19 19 18 17 17 18
34 35 36 36 37 38 37 34 33 35 33 31 29 28 27 27 26 26 25 25 23 23 23 24 25 23 22 20 20 20 20 20 19 19 16 14 15 17
31 32 34 33 34 35 33 32 32 30 29 29 28 27 26 25 25 26 26 24 22 22 22 23 22 19 17 18 23 20 20 20 19 15 14 14 14 16
29 31 33 32 32 33 32 32 30 29 29 28 27 27 26 25 25 25 24 22 21 20 20 20 18 15 11 5 13 22 22 21 20 18 16 14 15 16
27 28 32 32 31 31 31 31 28 27 27 27 27 26 26 25 24 24 23 21 20 20 20 19 18 16 16 11 14 15 16 14 13 15 15 17 18 20
25 27 30 32 31 31 31 29 28 27 27 26 26 26 26 25 24 22 21 21 21 19 17 18 19 20 16 14 12 11 15 18 20 20 22 23 22 21
24 27 30 32 31 31 30 28 27 28 26 26 26 26 26 26 23 21 21 21 20 18 16 16 16 16 16 16 14 15 16 18 20 23 27 28 24 20
24 27 30 31 31 31 29 28 28 27 27 26 26 26 26 23 22 21 20 20 18 15 15 13 13 14 15 15 17 18 17 20 23 23 22 25 28 29

GFSNE_sfc_30mbdewp_003.txt.gz
Dewpoint
57 57 58 58 58 58 57 56 54 50 49 48 49 50 50 50 49 49 49 50 52 54 55 55 55 55 53 51 49 46 45 43 42 40 38 36 36 36
53 55 55 56 57 58 57 57 56 54 51 51 51 51 51 50 50 50 49 50 51 54 54 53 54 53 51 49 46 44 42 41 39 37 36 36 35 35
48 50 52 54 55 55 56 56 56 55 53 53 52 52 51 51 50 50 50 49 49 52 52 53 52 52 49 46 44 42 41 39 37 35 35 35 35 34
46 49 50 51 52 53 54 54 54 55 54 52 52 52 52 50 50 48 47 47 47 48 50 51 51 50 47 45 42 41 39 37 35 34 34 34 33 33
47 48 49 50 50 51 52 53 53 53 54 53 52 53 53 47 44 43 43 44 45 46 49 50 49 47 46 43 41 39 36 35 35 33 33 32 32 31
46 47 47 48 49 49 50 51 52 52 52 52 52 53 53 48 46 46 41 42 42 42 46 47 47 46 44 41 40 36 35 35 34 33 32 31 31 30
46 45 45 47 48 48 49 50 51 51 51 50 50 51 52 45 45 45 45 44 41 41 41 43 42 42 41 40 38 37 33 33 33 32 32 31 30 30
36 39 42 45 45 48 50 50 51 51 50 49 49 49 49 51 49 47 45 40 38 39 38 37 38 37 36 36 35 33 32 32 32 31 31 30 30 30
37 37 41 40 39 42 44 46 47 49 50 51 50 50 51 51 52 49 46 44 42 37 37 35 34 33 33 32 30 28 28 29 29 30 30 30 30 30
35 36 39 33 36 41 43 44 44 45 46 49 50 50 51 53 53 51 48 41 33 34 35 30 30 31 30 29 29 27 28 28 28 29 30 30 29 29
32 36 28 29 33 37 39 40 41 41 43 44 47 47 48 50 52 44 40 36 31 30 30 29 28 28 28 25 25 27 27 27 28 28 29 29 29 29
33 30 29 31 33 35 36 37 38 38 40 42 44 45 44 46 49 48 44 39 31 28 29 28 27 27 21 21 19 20 23 25 26 28 29 27 26 26
31 32 31 31 34 35 38 39 40 41 42 42 43 39 35 35 35 36 39 39 33 32 30 29 26 24 17 18 19 19 19 19 19 21 23 23 23 22
31 31 30 32 34 37 39 41 41 41 42 41 38 34 32 31 32 32 32 32 32 32 32 29 25 22 19 17 13 18 18 18 18 17 17 20 21 21
30 30 32 32 35 36 36 37 38 36 37 36 33 31 31 32 30 28 29 29 30 29 28 26 22 20 17 14 15 17 17 19 20 19 20 19 18 17
28 30 31 30 34 34 34 35 34 34 34 33 32 31 30 29 27 28 26 26 26 25 26 23 21 19 18 19 18 17 19 15 19 19 19 18 18 18
28 29 27 27 30 31 33 32 34 33 31 31 30 29 28 27 25 26 26 25 23 23 23 25 24 22 20 18 19 19 19 20 20 20 19 17 16 17
28 25 25 25 27 30 30 31 32 32 30 30 29 28 26 25 24 25 25 25 24 22 22 23 23 20 15 15 23 20 19 19 19 19 18 15 15 16
25 25 25 26 26 30 31 30 30 31 30 29 28 27 26 25 25 24 25 25 23 22 21 19 18 14 4 -8 11 23 19 21 21 20 19 18 16 17
23 24 25 27 27 30 30 30 30 29 28 27 27 26 26 26 25 24 24 23 21 20 19 18 16 13 9 5 11 11 19 16 13 13 14 17 18 20
23 24 26 26 27 29 30 30 29 28 27 26 26 26 26 25 24 25 24 22 20 19 19 18 18 20 13 13 12 11 14 18 19 18 19 21 20 22
24 24 24 25 27 27 30 30 28 27 27 26 26 26 26 26 24 23 22 21 19 18 16 15 16 15 15 14 12 14 15 18 20 22 24 25 23 21
22 23 25 26 23 26 29 29 28 27 26 26 26 26 26 24 23 22 21 20 18 16 14 12 13 12 14 14 16 17 17 19 21 22 22 24 26 27

GFSNE_sfc_30mbdewp_006.txt.gz
Dewpoint
47 50 52 53 54 55 56 55 54 50 50 52 52 52 51 51 51 50 50 49 51 51 53 53 53 55 55 56 57 57 56 55 52 50 48 46 43 41
45 45 47 49 50 53 55 55 54 53 50 51 51 53 53 51 51 51 51 51 50 51 52 53 53 54 55 55 56 56 55 53 50 48 46 44 42 38
44 43 46 48 49 50 52 52 52 52 50 49 51 53 54 54 52 51 51 51 50 51 52 53 54 54 55 55 55 54 52 49 47 46 44 42 38 38
38 42 45 46 47 48 49 49 49 50 50 48 49 51 52 53 54 52 51 51 51 51 51 52 53 54 54 54 53 52 49 48 46 44 42 39 37 37
39 42 45 46 44 44 46 47 47 48 49 48 48 49 51 52 52 51 52 51 50 51 51 52 53 54 54 53 51 49 48 46 44 42 39 36 36 36
43 45 43 38 39 43 44 45 46 46 47 47 47 47 48 49 51 51 49 46 47 46 47 49 51 53 53 52 50 48 47 44 42 39 37 35 35 34
39 33 35 36 40 43 37 36 41 43 43 44 45 46 48 47 46 47 47 49 45 47 45 45 49 50 51 50 48 46 44 42 41 39 37 34 34 33
27 27 33 33 39 31 31 37 40 41 42 42 42 43 44 46 48 48 48 47 45 45 45 44 46 46 46 47 45 44 42 41 40 37 35 33 33 32
23 24 26 33 32 27 30 34 34 37 40 41 40 40 42 43 47 47 47 48 46 42 42 41 39 41 40 41 43 42 41 40 37 35 34 33 32 32
24 24 29 33 30 31 32 32 33 35 36 38 40 40 41 43 45 45 46 47 39 38 40 37 35 36 35 37 41 41 39 37 36 34 33 32 31 31
24 25 31 32 32 32 31 32 33 35 37 40 41 42 42 43 44 44 43 40 37 34 34 32 30 29 31 32 36 38 37 35 33 31 31 31 31 30
25 27 31 30 30 29 30 32 34 35 37 38 39 40 42 43 42 41 42 41 39 31 31 32 29 29 27 28 30 32 35 33 30 30 31 31 31 30
27 28 28 28 28 30 31 34 35 36 36 35 37 39 41 36 35 34 35 39 38 33 32 32 28 27 26 24 26 28 24 23 26 28 29 30 30 29
28 27 27 28 31 32 31 34 34 34 33 33 33 34 34 33 33 32 32 33 33 34 34 32 28 26 23 22 21 19 19 19 20 20 20 22 26 26
26 28 25 29 27 28 28 30 32 32 31 31 31 32 33 32 29 29 29 28 27 28 28 28 27 26 25 20 18 17 16 18 18 17 17 17 17 19
28 23 26 23 23 24 26 28 30 31 32 31 31 32 31 29 27 28 27 27 25 23 26 26 25 23 19 19 18 18 17 12 19 19 19 19 19 18
21 24 24 22 23 25 25 27 29 30 30 31 30 29 29 27 26 27 26 26 23 22 22 23 24 22 20 19 15 16 17 17 18 19 19 16 17 17
20 22 22 21 23 23 24 27 27 29 30 30 29 28 27 25 25 25 26 25 23 22 21 22 22 17 11 15 21 18 19 18 18 19 19 17 15 16
19 22 21 21 22 23 24 26 26 29 31 29 28 27 27 25 26 24 25 25 23 21 20 20 17 8 -5 -10 10 23 17 19 19 19 19 18 17 17
20 21 20 20 21 24 24 24 25 28 28 28 27 26 26 26 24 24 24 23 21 20 19 16 15 10 4 1 7 11 23 22 18 12 13 17 18 20
20 19 20 20 22 25 21 24 25 28 28 27 26 25 25 25 24 24 25 23 21 19 18 17 16 18 11 13 11 10 13 18 17 15 17 18 19 21
20 20 20 20 24 22 22 23 25 27 27 26 25 25 25 25 24 24 23 21 19 17 16 14 13 15 14 13 11 12 15 17 20 22 23 22 22 20
21 21 20 22 23 21 22 23 24 26 27 25 25 25 25 24 23 22 21 19 16 14 12 12 12 12 14 14 15 16 17 17 19 20 22 25 26 26

GFSNE_sfc_30mbdewp_009.txt.gz
Dewpoint
44 45 46 45 47 49 50 51 49 46 44 46 47 50 53 54 53 52 52 52 52 51 53 54 54 54 54 54 55 56 56 56 56 57 57 56 53 52
41 39 39 41 45 48 49 49 49 47 44 45 46 48 51 52 54 53 52 51 52 53 53 53 53 53 54 54 54 55 55 56 55 57 57 55 52 50
34 37 38 41 45 46 44 45 44 46 44 44 45 47 48 50 51 54 53 53 52 52 53 54 54 54 54 54 54 55 55 55 54 56 56 54 52 49
34 36 39 43 43 42 39 40 43 44 43 42 43 44 46 47 49 51 52 53 53 52 53 53 53 53 54 54 53 54 54 55 55 55 55 54 51 49
30 34 42 37 38 34 36 42 40 35 37 39 42 43 43 45 47 49 50 52 53 53 52 52 53 53 53 54 54 54 54 54 55 54 53 52 50 47
33 39 31 31 33 33 37 32 29 33 37 37 37 40 40 42 44 46 47 49 49 50 50 50 51 52 53 54 53 54 54 54 53 52 51 49 47 44
19 22 22 25 25 32 36 33 30 32 35 33 34 36 36 38 39 42 43 44 47 49 48 48 48 48 49 51 52 53 53 52 51 50 48 46 44 42
14 16 23 24 24 33 33 32 33 32 32 32 32 33 34 36 38 40 40 40 40 45 47 47 47 46 47 49 51 52 51 50 48 47 46 43 41 41
21 23 24 24 28 33 32 32 32 31 31 31 32 34 35 36 37 37 37 39 41 44 44 43 45 45 46 46 49 51 49 47 46 45 43 41 40 38
22 23 24 26 29 29 29 27 29 29 30 32 35 36 37 38 40 40 40 40 41 43 42 39 42 41 39 41 46 47 46 44 43 42 41 40 39 38
25 25 28 27 27 26 27 27 28 28 30 35 35 36 36 36 37 40 38 38 38 40 39 39 36 33 33 35 42 45 43 42 41 40 39 39 38 36
30 30 27 26 25 26 26 27 31 33 35 34 34 33 33 34 36 38 37 34 34 35 35 35 31 30 29 30 33 41 41 40 39 38 39 38 36 33
28 25 25 26 28 24 26 28 31 31 32 32 31 31 31 33 33 35 35 33 31 32 37 35 31 29 28 25 27 30 32 35 36 38 38 35 33 32
24 26 27 23 22 23 23 22 23 27 29 30 29 29 30 30 32 33 31 31 31 30 33 34 29 28 25 23 23 25 27 29 31 30 30 33 33 33
27 26 21 21 22 21 22 23 26 27 30 29 28 29 30 32 32 29 30 29 27 26 26 29 28 27 26 23 21 22 24 24 24 23 22 25 25 24
30 20 18 20 21 21 22 23 25 25 27 28 28 30 31 29 29 28 27 27 24 23 25 26 25 25 23 23 23 23 23 22 21 19 19 18 18 19
20 18 17 20 20 19 20 22 23 24 25 25 28 28 27 27 27 27 26 26 23 22 21 23 24 23 22 21 21 21 19 18 19 18 17 16 17 18
18 18 18 19 19 19 20 20 23 22 23 25 28 28 26 26 26 25 26 25 22 22 21 22 21 20 15 19 21 17 16 17 19 18 17 14 14 16
19 19 18 18 19 20 20 22 22 21 24 25 28 27 26 26 25 24 25 24 22 21 20 19 17 7 -3 -3 13 21 16 17 18 18 18 17 16 16
20 19 18 19 20 19 20 22 21 22 23 25 27 26 25 25 24 24 24 22 21 19 18 16 13 12 1 1 3 15 21 19 19 17 16 18 18 19
20 18 18 20 20 19 21 21 21 21 24 24 26 25 25 25 24 24 24 23 21 19 17 16 14 16 11 10 10 11 12 21 21 14 14 15 18 20
18 18 19 19 19 20 21 21 21 21 22 25 25 25 25 25 24 24 23 20 19 18 16 14 13 14 13 11 12 13 15 17 20 22 20 21 20 19
19 20 20 19 20 21 20 20 21 21 22 26 25 24 24 22 23 22 20 18 16 13 12 12 12 12 13 13 14 15 16 17 19 21 23 25 25 28

GFSNE_sfc_30mbdewp_012.txt.gz
Dewpoint
40 39 36 38 40 42 45 46 43 38 38 39 40 43 47 48 49 51 53 53 54 54 53 54 54 55 56 57 56 56 57 57 56 56 58 58 57 58
26 30 33 37 39 42 46 44 41 40 37 36 37 40 42 44 46 48 49 50 52 53 54 54 54 54 54 56 56 55 55 55 56 56 56 57 57 57
23 26 30 34 39 39 41 36 34 38 39 37 33 32 34 40 44 47 47 48 50 52 53 53 54 54 54 54 55 56 56 56 56 56 56 56 56 57
25 29 32 36 30 34 35 29 34 39 30 31 31 32 35 36 39 42 43 45 47 49 50 52 53 53 54 54 54 54 55 56 56 56 56 56 55 57
27 24 17 24 23 23 24 26 33 33 32 31 32 34 33 33 38 39 38 39 43 46 48 51 52 52 53 53 53 53 54 54 55 55 56 56 55 57
21 18 16 17 20 25 23 25 33 33 32 32 32 32 32 33 34 34 34 36 38 40 44 44 48 50 51 52 52 52 52 54 54 54 54 54 55 57
19 19 21 23 24 25 27 28 31 31 30 32 31 30 29 29 31 33 34 35 37 37 39 41 44 48 48 49 49 49 50 52 52 52 53 54 55 55
21 22 22 24 24 27 27 27 27 27 26 27 29 27 27 28 32 34 36 34 33 36 38 39 40 43 44 46 47 48 49 50 51 52 53 54 53 52
23 23 24 25 27 28 27 26 27 26 26 25 26 27 28 30 34 33 32 33 34 35 37 35 39 40 43 43 46 47 48 49 51 51 52 52 49 48
24 25 26 29 27 25 26 30 31 26 25 29 30 33 33 36 34 33 34 34 35 37 39 36 39 40 42 42 43 45 46 47 48 50 50 47 46 45
24 26 30 26 24 25 28 26 24 28 28 27 30 30 31 30 30 32 32 32 32 33 36 37 38 38 35 35 37 40 44 47 48 46 44 44 43 42
27 29 24 23 24 24 21 23 25 22 23 27 30 30 29 28 29 31 33 30 30 29 34 35 37 33 33 30 33 38 46 46 45 43 42 41 40 38
26 21 22 27 27 20 20 22 21 22 27 27 26 28 28 29 31 33 33 31 29 28 30 33 32 31 31 28 29 30 39 41 41 41 40 39 39 37
21 21 26 28 19 18 21 21 21 22 23 25 25 26 26 27 28 31 31 32 31 28 27 27 27 31 28 25 27 27 29 32 35 35 37 38 39 37
21 29 23 19 17 19 19 19 19 20 22 24 23 25 25 27 30 28 29 30 28 27 25 25 27 28 27 25 23 23 26 26 31 31 34 36 36 35
29 28 20 17 17 18 18 19 19 20 22 24 24 23 24 26 27 27 27 26 25 24 26 26 24 25 23 24 25 24 25 25 25 28 28 27 27 31
20 17 17 17 17 17 17 18 19 19 23 22 22 22 23 26 26 26 27 26 24 22 22 23 24 24 24 24 22 23 22 23 24 24 25 23 21 21
14 15 19 17 17 17 18 18 18 19 21 21 22 22 22 26 24 26 26 25 22 21 21 21 21 20 20 23 25 21 20 20 21 21 20 19 18 18
15 20 18 17 17 18 19 18 18 19 22 22 21 23 24 25 24 24 25 24 21 20 19 19 16 14 5 10 19 22 18 19 19 17 16 14 13 15
18 19 17 17 18 19 18 18 19 20 21 21 22 22 25 24 24 24 24 22 20 20 18 17 16 14 6 6 15 18 20 17 17 17 17 18 18 20
17 17 18 18 19 19 18 19 20 20 21 21 21 24 24 24 24 24 24 23 21 19 16 15 14 17 12 11 10 12 16 22 17 14 15 16 17 19
17 18 18 19 19 19 19 20 20 20 20 20 21 24 24 24 23 22 22 20 20 18 15 14 13 13 13 13 13 14 15 17 21 19 21 21 19 19
19 18 19 19 19 19 20 20 19 20 20 21 23 24 23 22 22 21 20 18 17 13 13 13 13 13 13 14 15 15 17 18 20 21 23 23 26 31

GFSNE_sfc_30mbdewp_018.txt.gz
Dewpoint
16 18 19 20 24 25 26 29 29 26 27 27 25 20 19 23 27 34 32 31 33 32 32 35 40 44 47 48 47 49 52 53 54 55 55 55 55 59
15 17 19 21 23 21 19 18 21 21 21 21 22 21 22 24 30 30 27 30 32 32 31 33 37 41 42 43 47 48 49 52 53 53 53 55 55 53
16 17 18 22 19 17 17 17 18 19 22 23 24 25 23 25 26 25 27 27 29 29 29 35 34 38 41 44 42 43 47 49 51 52 53 54 55 55
16 17 17 17 18 17 17 18 20 22 23 26 24 23 24 23 25 25 25 25 25 25 26 28 32 34 38 40 43 43 43 44 47 51 52 52 54 54
17 18 18 18 18 18 19 21 22 24 25 25 25 25 26 25 24 25 25 24 23 26 27 27 28 30 34 38 39 38 42 45 46 47 52 53 53 54
18 19 18 18 18 20 21 21 25 25 24 24 26 26 25 25 24 24 23 24 26 27 28 30 31 34 35 34 38 40 43 41 47 50 50 52 52 52
19 18 18 19 21 22 23 25 26 24 25 26 26 23 21 21 22 23 25 24 25 28 30 32 33 35 34 33 34 36 38 39 42 45 48 48 49 50
17 17 17 18 19 23 24 23 22 25 25 28 23 20 20 22 24 22 24 24 24 27 30 29 29 29 32 32 32 36 39 40 41 43 46 47 47 47
17 16 17 16 21 24 21 21 24 30 28 22 20 21 23 23 24 25 27 27 26 26 27 27 30 31 32 33 36 36 38 41 42 43 44 44 45 46
17 17 17 20 23 21 20 24 30 22 19 19 19 22 26 28 25 25 26 28 28 29 29 29 30 29 32 33 33 37 38 39 43 43 44 44 42 43
17 17 21 22 19 19 25 30 24 20 17 18 22 23 21 21 22 25 27 25 25 25 28 28 29 32 33 32 30 31 35 39 39 40 40 41 42 43
19 21 20 19 19 24 27 18 21 18 19 22 21 19 20 21 22 24 28 25 25 24 27 28 28 27 26 29 34 33 34 33 35 37 41 43 42 44
24 22 20 19 23 19 16 17 18 18 19 19 19 20 20 21 23 24 25 26 24 24 25 27 28 27 28 26 26 30 32 34 34 42 46 46 45 44
22 20 22 24 16 15 16 18 16 17 18 19 19 20 20 21 22 24 24 25 27 27 28 30 27 28 25 24 23 26 31 32 34 38 39 43 42 43
19 23 23 15 15 15 17 15 16 17 19 20 20 20 21 22 23 24 25 26 26 27 31 31 29 27 25 23 23 25 31 31 34 34 34 35 37 38
26 24 15 14 13 15 14 15 16 17 19 21 21 22 22 21 22 23 24 25 26 27 31 29 27 26 24 24 26 28 30 28 31 33 32 32 34 34
21 16 13 13 14 14 15 15 17 18 20 21 21 21 21 21 22 24 25 26 26 25 25 27 27 27 28 27 27 29 29 28 31 31 31 30 32 32
15 13 13 15 15 15 15 16 17 19 21 21 20 21 21 21 22 24 27 27 23 23 21 22 22 24 26 26 27 26 27 27 29 31 31 29 29 32
13 15 16 15 15 16 16 17 19 20 21 21 21 21 21 22 23 25 25 24 23 22 21 20 19 19 22 18 23 27 25 27 27 28 29 27 27 31
15 16 16 16 16 16 17 19 19 19 20 20 20 21 21 22 23 23 24 24 22 20 19 19 18 17 18 19 19 23 27 27 25 24 24 26 28 32
16 15 16 16 17 17 19 19 19 19 20 20 20 21 22 24 22 21 20 20 19 18 17 18 18 19 18 21 21 21 24 28 28 25 26 25 23 25
15 16 16 17 17 19 19 19 19 19 19 20 20 21 23 23 20 17 15 17 19 18 18 21 22 21 21 18 18 19 21 25 26 25 26 24 19 18
17 17 17 18 19 20 19 19 19 19 20 21 21 22 23 21 17 15 19 23 23 23 22 23 23 21 20 20 19 19 20 20 22 25 28 30 25 22

GFSNE_sfc_30mbdewp_021.txt.gz
Dewpoint
16 18 18 20 22 22 25 24 22 19 18 19 19 20 23 22 24 25 25 29 31 30 30 30 33 34 32 34 38 40 40 38 43 47 48 50 52 54
14 16 18 19 19 22 23 21 20 19 18 19 20 22 24 26 24 25 25 28 27 25 26 30 31 29 30 34 35 36 37 39 41 40 44 47 50 52
15 16 17 18 19 19 20 20 20 20 20 21 22 26 25 23 24 25 25 26 25 25 24 25 27 28 28 31 32 33 34 36 38 43 42 45 49 51
15 17 17 17 19 20 20 19 20 21 21 22 24 24 23 24 25 25 24 24 24 24 25 24 25 25 27 30 32 35 37 38 39 36 39 42 44 49
16 17 18 19 19 19 20 21 21 22 25 25 24 23 24 26 25 22 19 20 23 24 23 24 25 26 29 30 34 35 36 38 39 40 42 44 46 46
19 19 19 18 18 19 20 22 24 26 26 25 23 24 25 26 23 20 19 23 24 22 22 23 24 26 27 29 34 37 37 36 33 37 39 42 47 50
19 19 17 19 19 19 19 22 25 27 23 23 26 27 28 22 20 20 20 21 22 23 24 26 27 28 30 29 29 31 32 32 33 36 39 40 43 46
19 18 17 18 17 18 21 22 23 22 21 25 27 27 22 19 18 20 22 23 22 24 24 24 25 26 27 28 28 30 30 32 33 37 39 40 42 44
17 17 16 16 18 22 23 23 22 22 27 24 23 23 18 18 22 24 26 24 21 22 24 25 26 28 30 30 29 28 31 33 34 36 37 39 43 43
17 17 17 19 22 22 21 27 28 27 23 19 20 18 19 23 27 25 22 24 26 26 26 24 29 26 29 29 30 28 30 31 32 32 37 41 43 44
18 18 20 21 21 21 25 28 22 18 18 19 20 20 19 20 20 21 24 23 21 22 24 24 26 29 26 27 28 27 35 35 35 34 36 38 39 40
20 23 21 19 20 25 25 18 18 17 23 21 19 18 18 19 20 21 24 23 22 22 21 22 23 25 23 27 29 30 28 28 31 31 34 35 36 38
24 22 21 19 24 24 16 16 16 22 19 18 17 19 20 20 21 22 23 24 22 21 23 24 25 25 25 25 25 27 28 29 31 33 35 39 42 41
23 21 20 29 20 15 16 15 17 17 17 18 19 20 20 20 21 22 23 24 25 25 25 26 25 25 24 24 23 24 25 27 33 32 36 42 45 44
19 20 29 17 14 14 14 15 15 16 18 21 21 20 20 21 22 22 24 25 25 26 27 28 28 28 27 23 22 23 25 29 32 32 33 34 36 41
25 28 16 14 13 14 15 15 16 16 18 21 21 21 21 21 22 24 24 24 24 24 31 30 28 26 24 25 25 24 27 28 31 32 32 32 34 37
21 17 14 13 15 15 15 15 16 18 21 21 20 20 20 21 21 23 24 26 25 24 23 24 26 27 27 26 25 27 29 29 31 31 32 31 31 35
16 14 14 15 15 15 15 15 18 19 20 20 20 20 20 20 21 23 26 26 24 23 22 22 22 21 25 26 27 27 28 29 31 31 32 30 30 33
14 15 15 15 15 15 16 19 19 19 21 20 20 20 20 21 22 23 22 23 22 22 22 22 20 19 21 18 24 29 27 29 29 28 30 31 30 32
16 16 15 15 16 17 19 19 19 19 19 20 20 20 21 21 22 21 20 20 20 20 20 21 19 18 17 18 20 25 30 28 27 27 28 31 32 36
16 16 16 16 17 20 20 20 20 19 20 19 19 21 22 22 23 22 21 22 23 21 20 21 21 22 21 23 21 23 27 31 30 28 28 27 28 30
16 16 16 17 20 20 20 20 19 18 19 19 20 22 23 24 23 22 21 21 23 23 23 25 23 23 23 21 20 23 25 27 30 31 29 27 26 25
16 17 17 19 20 20 20 19 18 19 19 21 22 23 23 21 23 24 23 23 25 25 24 24 23 22 21 21 22 23 25 26 27 26 27 25 26 31

GFSNE_sfc_30mbdewp_024.txt.gz
Dewpoint
14 16 17 19 20 21 22 22 23 20 19 19 18 20 21 22 24 26 24 24 25 25 27 26 27 27 28 28 29 31 31 31 33 38 38 38 43 43
12 15 16 18 19 20 22 21 22 20 19 19 20 21 20 23 24 23 23 26 25 27 26 24 25 26 26 27 27 28 26 28 31 32 34 35 38 40
13 15 17 18 19 20 20 21 21 21 20 21 20 20 25 23 22 23 24 25 26 24 21 21 21 23 25 26 26 27 29 30 31 32 33 36 35 42
15 17 17 18 19 20 21 19 20 21 20 19 23 25 23 23 23 22 25 25 23 20 21 20 24 26 24 25 27 27 27 30 31 32 36 37 39 37
18 19 20 19 19 20 19 19 19 20 24 25 24 25 24 23 24 26 26 23 21 19 18 21 22 22 24 25 25 26 29 30 31 34 35 36 36 39
20 21 20 20 19 19 18 18 20 23 24 24 26 27 23 24 25 28 21 19 17 18 21 22 23 24 23 24 26 26 28 30 30 30 33 36 34 37
21 21 21 20 21 19 19 20 22 21 24 29 27 25 24 23 22 20 17 16 19 21 22 25 21 23 24 24 25 26 27 29 29 31 33 34 35 37
21 20 19 18 18 20 20 20 21 25 26 27 26 22 18 17 20 20 19 20 20 24 21 20 21 22 24 26 26 29 30 32 31 29 31 34 36 37
20 19 19 18 19 20 22 24 31 28 25 22 18 17 17 23 26 23 24 24 23 22 22 22 23 23 26 26 26 25 28 30 29 28 29 31 33 35
20 20 20 20 22 22 23 27 28 27 22 20 18 19 23 21 21 21 21 22 23 22 22 22 22 25 23 24 27 25 24 25 27 35 36 35 33 34
20 20 22 23 22 21 24 28 25 21 21 18 24 24 19 18 18 19 22 22 19 19 21 21 22 23 21 23 24 25 27 34 29 34 32 36 36 37
21 24 24 21 19 24 24 19 19 17 19 24 18 16 17 19 20 21 22 21 20 19 18 19 20 22 20 21 24 27 25 27 28 28 29 31 33 34
25 24 23 20 27 23 18 16 16 19 20 16 16 17 19 21 21 22 23 23 20 20 21 22 23 23 23 22 25 25 30 28 28 28 29 33 35 35
22 20 19 26 19 17 16 15 17 17 16 16 18 20 19 20 21 21 22 23 24 24 25 26 23 23 23 22 22 23 23 25 28 29 31 33 36 38
20 22 26 19 15 14 15 15 16 16 17 20 20 19 20 21 22 22 23 23 23 25 27 28 27 26 26 22 21 22 23 24 28 30 31 32 35 42
25 26 18 14 14 15 15 15 15 17 20 21 20 21 21 21 21 22 22 22 24 25 25 26 25 24 23 23 24 23 24 25 30 31 31 33 36 38
19 17 13 14 15 14 14 15 16 19 21 21 20 19 19 20 20 21 23 24 22 23 23 24 23 23 24 25 23 24 27 28 31 31 32 32 33 37
15 13 15 15 15 15 16 18 19 19 20 20 19 19 19 19 20 22 23 22 21 22 22 23 21 19 22 26 28 25 27 28 30 31 32 32 32 36
14 15 16 16 16 16 18 19 19 20 21 20 19 20 19 19 20 21 23 22 20 22 22 23 20 18 17 17 23 30 27 28 30 30 31 32 31 32
16 17 16 15 16 18 19 19 19 19 19 20 19 19 20 20 20 21 22 21 21 23 22 22 21 20 17 17 18 27 31 28 30 30 31 32 34 36
16 15 16 17 19 19 19 19 19 18 19 19 19 20 20 21 21 21 22 22 23 23 21 22 23 28 25 25 23 24 28 32 31 29 30 31 30 31
15 16 17 18 19 19 19 19 18 18 18 19 20 20 22 23 20 21 23 22 22 24 23 23 23 25 24 23 23 24 26 28 31 32 33 30 28 27
16 18 18 19 19 19 19 18 18 18 19 20 20 22 24 21 21 22 24 24 24 25 25 23 22 23 24 24 25 25 25 25 24 26 31 34 34 35

GFSNE_sfc_30mbdewp_027.txt.gz
Dewpoint
13 15 15 15 19 22 22 21 20 19 18 19 19 20 22 22 21 22 24 23 22 24 25 25 26 28 27 25 25 25 27 28 28 31 32 31 30 32
13 15 15 17 19 19 21 23 21 20 20 19 19 20 20 20 24 24 22 23 24 23 24 25 26 30 24 25 24 24 28 29 30 29 30 28 31 35
16 16 18 19 19 20 20 21 22 22 19 19 19 20 21 24 23 23 24 22 22 24 26 26 26 25 24 23 22 30 27 26 27 29 33 34 35 36
17 19 19 20 21 21 21 21 20 20 19 19 20 23 24 24 23 25 23 22 26 30 25 23 23 21 21 21 23 24 24 26 26 26 27 27 28 34
19 20 20 21 21 21 21 20 20 20 22 25 26 25 23 28 27 25 26 26 27 20 19 19 18 19 21 23 25 25 24 25 27 27 28 28 30 34
20 21 21 21 21 20 20 19 21 21 21 21 22 27 24 25 27 21 16 17 19 20 19 20 21 22 24 22 21 23 24 25 26 26 26 28 32 34
20 21 21 22 21 20 20 19 20 21 26 28 25 26 25 18 16 17 17 19 22 21 21 21 24 25 21 21 22 23 24 26 27 29 31 30 31 34
20 20 21 21 20 21 21 21 22 23 24 26 26 23 18 18 18 18 21 23 20 22 22 23 21 20 21 22 23 24 26 27 24 26 27 31 32 34
19 20 20 20 22 22 23 23 24 27 28 24 21 20 19 19 22 25 24 22 21 21 21 20 21 20 22 22 21 23 24 23 25 30 30 31 28 28
20 20 20 22 24 22 22 23 29 28 23 21 20 19 24 25 20 18 19 22 23 21 20 18 20 20 20 20 22 23 22 26 30 30 31 33 31 32
20 21 24 23 21 20 23 28 25 23 18 18 24 22 18 17 18 21 22 21 18 18 19 19 20 20 20 20 21 22 24 26 28 33 31 30 31 32
23 25 22 19 18 26 25 21 18 15 21 24 15 15 17 18 20 21 22 19 18 17 17 19 20 20 19 20 22 24 26 26 25 27 29 28 28 29
24 21 20 20 30 19 18 15 15 20 19 15 15 17 18 19 19 20 23 22 19 18 20 22 22 21 21 20 22 24 25 25 27 27 25 27 28 29
21 20 21 28 17 16 15 16 17 18 15 17 18 19 18 19 21 22 23 23 24 23 25 25 23 23 22 20 20 22 23 24 25 26 28 29 30 31
22 24 23 17 15 15 16 16 16 16 20 20 19 18 20 21 22 22 22 23 24 24 26 28 26 24 21 19 20 21 22 24 28 27 28 30 30 31
25 20 15 14 15 15 15 15 16 19 20 20 19 20 20 21 21 22 21 21 22 22 22 26 27 25 20 20 22 21 23 23 27 29 31 31 34 36
17 15 13 14 15 15 15 16 17 18 20 19 20 19 19 20 20 21 21 22 21 21 21 23 24 21 21 21 20 23 24 26 29 31 31 32 35 37
15 13 15 15 15 15 15 17 18 18 19 19 19 19 19 19 19 21 21 21 21 21 22 23 22 19 18 22 26 24 26 27 30 32 32 31 32 36
14 15 15 15 15 16 17 18 18 18 19 18 19 20 19 19 19 20 21 22 21 22 23 24 22 19 17 17 23 31 27 28 31 31 32 31 31 34
15 15 15 15 16 18 18 18 18 18 17 19 19 19 19 19 19 20 20 21 23 23 22 22 22 23 19 19 18 26 31 30 29 30 31 32 33 35
15 15 15 17 18 18 18 18 17 18 19 18 18 19 19 20 20 20 20 22 24 23 21 21 23 28 27 25 24 25 29 33 33 31 32 31 31 32
15 16 17 18 18 18 18 17 17 17 17 18 18 19 20 21 22 21 21 22 22 23 23 23 25 26 25 25 24 24 26 31 33 34 34 33 31 28
17 18 17 18 18 18 17 17 17 17 17 18 19 20 21 22 24 23 22 24 23 24 23 22 24 25 25 26 24 24 25 28 30 30 31 34 34 34

GFSNE_sfc_30mbdewp_030.txt.gz
Dewpoint
13 15 16 17 19 19 21 21 21 19 17 18 20 20 20 21 21 21 21 23 24 24 24 24 24 25 25 26 27 30 31 28 32 28 27 29 29 31
14 15 17 19 19 20 22 22 21 21 19 20 20 19 20 20 21 22 23 24 25 24 24 24 24 26 29 29 30 32 31 28 25 25 28 32 33 33
16 17 19 20 20 21 22 22 22 21 20 20 20 20 22 23 24 24 24 24 25 25 24 22 22 24 25 24 27 26 23 23 25 28 29 32 31 31
16 18 19 20 20 21 22 21 21 21 20 21 24 24 22 21 22 23 27 26 25 24 20 21 21 22 21 21 22 22 22 23 24 26 28 28 27 28
18 19 20 20 20 21 22 21 21 21 22 21 20 20 21 24 26 26 24 17 18 17 17 18 20 20 21 22 23 26 27 30 30 25 26 26 27 28
18 20 21 21 21 21 21 20 22 20 21 21 23 26 25 23 28 19 16 17 17 17 18 21 22 21 21 22 22 23 22 22 23 23 24 25 25 26
18 19 20 21 22 21 20 21 21 23 26 27 22 22 25 19 17 17 18 18 18 22 25 20 20 22 22 22 21 21 21 22 23 26 27 28 28 29
18 19 20 21 21 21 22 22 22 21 21 22 26 20 19 18 19 18 20 23 18 19 18 19 20 19 20 20 21 22 22 24 26 27 27 31 28 27
19 19 20 20 23 24 23 21 22 25 29 22 20 19 18 19 23 24 21 20 20 20 20 19 19 19 19 19 20 21 22 22 23 24 30 29 28 29
20 20 21 23 22 20 19 24 28 23 23 19 17 20 24 22 19 20 22 23 23 20 18 18 19 18 19 19 20 21 23 23 24 25 27 28 28 28
20 21 25 22 19 21 29 23 21 18 15 19 24 20 18 18 19 23 21 20 16 16 17 18 18 19 20 20 20 21 22 23 25 26 28 34 35 35
23 26 22 20 20 26 18 17 16 15 23 24 15 15 17 18 20 20 23 18 18 16 16 18 19 20 18 19 20 22 23 23 23 24 25 26 28 29
23 20 20 23 23 17 17 16 17 21 20 15 16 17 18 19 19 21 23 22 19 18 19 22 21 21 21 20 21 21 22 23 24 24 25 28 28 28
20 22 24 22 17 16 17 18 19 19 16 18 18 18 18 19 20 22 22 23 23 22 24 24 22 23 21 20 18 17 19 22 23 25 27 28 30 31
23 21 20 17 15 16 16 17 17 16 18 19 18 18 19 20 21 21 22 22 22 23 25 26 25 24 23 21 19 18 19 21 24 26 28 28 27 29
22 19 16 15 15 16 15 15 16 16 18 19 19 19 19 19 19 21 21 20 20 20 22 25 26 25 22 20 20 18 20 21 24 27 29 31 31 30
17 15 13 14 15 14 15 15 16 17 18 18 18 18 18 18 19 19 21 21 20 21 22 23 25 25 23 20 19 21 22 24 28 30 31 31 34 33
15 13 14 15 15 15 16 17 17 17 17 18 18 17 18 19 18 20 19 21 20 21 23 24 24 21 20 21 25 23 28 27 30 31 32 31 31 35
14 15 15 15 15 16 17 17 16 17 17 17 17 18 19 18 18 18 19 20 20 23 23 24 23 21 18 18 22 29 28 30 30 31 32 31 30 33
15 15 15 15 16 17 17 17 17 16 16 17 18 17 18 18 18 19 20 20 22 23 23 23 23 24 22 20 20 24 32 31 30 30 31 32 33 34
15 15 16 16 17 17 17 17 17 16 18 18 17 17 18 19 19 20 22 22 23 22 22 22 24 29 28 27 23 26 31 33 32 31 31 31 30 30
15 16 16 17 17 17 17 17 16 16 16 16 17 18 18 19 19 21 23 22 22 23 23 24 26 26 25 25 23 26 29 31 33 33 34 33 30 27
16 17 16 17 17 17 16 16 16 16 16 17 17 18 19 19 20 24 23 24 24 24 23 22 25 25 25 25 25 27 28 29 30 30 31 34 34 34

GFSNE_sfc_30mbdewp_033.txt.gz
Dewpoint
13 15 16 17 19 20 21 21 21 18 17 17 19 20 21 21 21 21 21 22 23 24 25 25 24 25 26 28 28 30 31 31 32 33 32 35 34 32
14 16 17 19 20 21 22 22 22 21 20 20 20 20 21 21 22 22 22 24 25 25 24 24 25 24 24 24 24 25 25 32 32 34 35 34 33 31
14 16 18 20 20 21 21 22 22 22 21 21 21 22 23 20 20 21 22 23 24 26 27 25 21 21 22 23 26 27 28 27 28 31 34 31 30 32
16 17 18 19 20 21 21 21 22 22 21 22 24 21 19 20 21 22 24 26 33 27 21 19 19 20 20 22 25 26 26 27 27 26 26 26 28 30
18 18 18 20 20 21 21 21 22 22 24 23 20 21 22 23 24 27 27 22 18 17 18 19 20 21 21 24 25 24 26 27 27 28 28 31 32 31
18 19 19 20 21 21 21 20 24 21 21 22 23 23 23 26 26 18 15 17 17 18 19 21 22 22 21 21 21 21 22 24 23 23 24 25 25 25
19 19 20 21 21 20 20 20 20 22 24 23 21 25 20 17 15 17 17 18 20 22 24 20 18 18 19 20 20 20 21 22 22 23 24 25 27 28
19 20 20 21 21 22 21 21 21 20 24 26 21 19 17 16 17 18 22 21 17 19 18 20 20 19 19 20 20 21 22 23 24 28 29 28 28 29
20 20 20 20 22 24 23 21 26 29 22 21 19 17 17 18 25 23 21 21 19 19 21 21 19 18 18 18 20 21 22 23 23 24 26 28 28 28
20 21 20 21 25 21 23 29 22 20 19 18 17 20 25 22 18 20 23 23 22 19 18 18 18 18 18 19 20 21 23 23 23 24 25 26 27 27
20 21 24 24 20 22 26 21 18 18 16 19 25 20 18 19 20 24 21 19 16 16 17 17 18 18 19 19 20 21 22 22 22 22 24 26 30 30
24 25 22 20 20 25 19 17 17 16 23 24 16 16 18 18 20 21 23 18 18 16 15 18 19 20 18 19 20 21 21 22 22 22 23 24 25 27
18 21 21 22 23 18 18 17 18 22 20 15 16 17 18 18 19 20 22 22 19 18 18 21 20 19 19 18 19 21 21 22 21 21 22 23 24 25
20 21 22 22 18 17 17 18 20 18 16 16 18 18 18 18 19 20 21 22 23 22 23 24 21 20 19 19 18 19 20 22 23 23 24 26 29 30
21 20 20 18 16 16 17 18 17 16 17 18 18 17 18 19 20 20 20 21 21 22 24 25 24 23 23 21 20 20 21 22 22 23 24 25 26 27
20 18 17 15 15 16 15 15 15 16 18 18 18 18 18 18 18 19 19 19 20 19 21 23 27 26 23 22 22 20 22 21 23 25 27 28 29 29
18 16 13 14 14 14 14 15 16 16 17 17 17 17 17 17 17 18 19 20 19 19 20 23 25 25 25 24 21 23 24 26 30 30 31 30 32 30
16 14 14 15 14 14 15 15 16 16 17 17 17 16 16 17 17 18 18 19 19 20 21 24 24 22 21 21 25 24 27 29 31 32 31 30 31 31
14 15 15 15 15 16 16 16 16 16 17 17 16 16 18 16 17 17 18 19 20 21 23 24 23 22 21 20 23 27 27 29 31 31 31 31 30 34
15 15 15 15 15 16 17 16 16 16 16 16 17 16 16 17 17 17 18 19 23 23 22 22 23 24 23 22 22 26 32 30 30 30 30 32 33 37
15 15 15 16 16 17 17 16 16 16 17 17 16 16 17 17 17 17 19 21 24 22 21 22 25 29 27 27 25 27 31 33 33 31 31 30 28 30
15 15 15 16 16 17 16 16 16 15 16 16 16 17 17 18 18 18 19 21 22 23 23 23 25 26 25 25 24 26 28 31 33 34 34 32 29 26
15 15 15 16 16 16 16 16 16 15 16 16 17 17 18 18 19 20 21 23 23 24 22 22 24 25 25 25 25 25 26 27 30 30 31 34 33 33

GFSNE_sfc_30mbdewp_036.txt.gz
Dewpoint
13 14 16 17 19 20 21 21 20 17 14 15 18 19 21 21 22 22 22 23 23 24 24 24 24 24 26 26 28 31 30 30 32 32 32 32 34 33
15 15 16 18 19 21 21 22 22 20 19 18 19 20 21 22 23 22 20 22 23 24 24 24 25 25 26 27 24 24 24 28 29 30 31 31 34 36
16 17 17 19 19 21 21 22 22 22 21 21 21 21 23 21 20 21 22 22 23 25 26 25 24 24 23 23 23 26 26 27 28 29 30 31 33 34
17 18 18 18 19 20 21 21 21 22 21 21 23 21 20 21 22 23 25 27 29 25 21 21 20 20 21 22 23 26 26 25 26 27 27 29 28 30
18 19 19 19 19 20 21 21 22 22 24 22 20 21 22 23 26 24 21 18 16 17 18 19 20 21 22 24 27 28 27 28 25 25 27 27 29 30
19 20 19 20 20 21 21 21 21 20 20 22 22 23 26 22 19 16 15 16 17 18 20 22 22 21 21 21 21 21 21 22 22 23 24 26 26 28
20 20 20 21 22 22 21 21 21 22 23 25 24 20 18 17 16 16 16 18 22 21 19 19 19 19 19 20 20 20 21 22 22 24 25 26 26 27
20 20 21 22 21 23 22 22 22 23 27 22 20 18 17 16 17 18 23 20 17 19 18 21 21 20 20 20 20 21 22 22 23 24 27 28 28 29
20 20 20 20 23 22 24 24 26 27 21 19 18 17 17 18 24 23 20 21 20 20 21 20 19 18 18 18 19 20 22 23 24 25 25 27 27 28
20 20 20 21 23 23 22 29 25 21 19 18 18 20 26 23 19 20 23 23 22 19 17 17 18 17 18 18 20 21 22 23 23 25 26 26 27 26
20 21 22 22 21 23 27 23 19 18 17 19 24 22 19 20 21 23 21 19 16 16 17 17 18 18 19 19 19 21 22 22 22 24 25 27 29 28
20 20 21 21 21 26 19 18 17 16 22 25 16 16 17 18 20 19 20 18 17 16 15 18 19 20 17 17 19 19 20 21 23 24 25 25 25 26
18 19 21 21 22 19 19 17 18 22 20 15 16 16 18 18 18 19 20 21 18 17 18 22 20 19 19 18 19 20 21 21 22 23 24 25 28 27
20 21 20 21 19 18 18 19 20 19 15 16 17 17 17 18 18 19 20 21 21 21 23 23 20 20 19 18 18 20 21 23 24 25 25 26 28 30
22 20 20 19 16 16 17 18 18 16 16 18 18 17 17 18 19 19 19 20 20 21 23 23 23 23 23 21 21 21 23 24 24 25 25 25 25 25
21 20 18 15 16 16 15 15 15 16 17 18 17 17 17 17 17 17 18 18 19 18 21 23 25 26 24 23 24 22 24 23 26 27 29 29 29 27
19 16 13 14 14 14 14 15 15 16 17 17 17 16 16 16 16 17 18 19 17 18 20 22 25 25 25 25 23 24 25 26 29 31 31 30 32 32
17 14 14 14 14 14 14 15 15 16 16 17 16 16 15 15 16 17 17 17 18 19 21 23 24 23 23 23 28 25 28 29 30 31 31 30 30 29
14 15 15 14 15 15 15 16 16 16 17 17 16 15 17 16 16 15 16 17 18 20 23 23 23 23 21 20 23 27 28 30 30 30 31 31 31 29
15 15 15 15 15 15 16 16 16 16 15 15 17 17 16 16 15 15 16 17 19 22 22 22 23 24 24 22 23 27 32 30 30 29 29 33 35 35
14 15 15 15 15 16 16 16 16 16 17 17 15 16 16 16 15 16 17 19 21 21 21 22 24 28 26 26 24 25 30 30 33 30 30 29 30 31
14 15 15 15 16 16 16 16 15 15 16 16 16 16 17 17 17 17 18 19 20 22 23 23 24 25 24 24 24 25 27 29 29 31 33 32 30 27
15 15 15 15 15 16 16 15 15 15 16 16 16 17 17 17 18 19 20 21 23 23 23 22 23 23 23 23 24 25 26 27 28 28 30 34 33 33

GFSNE_sfc_30mbdewp_042.txt.gz
Dewpoint
14 16 17 17 18 18 18 17 16 14 12 11 11 13 15 17 18 19 19 20 22 24 25 26 26 25 26 26 27 27 29 29 31 32 31 31 33 34
15 17 17 17 17 18 18 18 17 16 15 14 13 15 17 18 18 18 18 21 22 23 24 24 23 24 26 27 28 27 28 28 29 31 31 32 32 32
17 18 18 18 18 16 16 16 16 16 15 17 17 18 18 18 17 19 20 21 20 18 19 21 23 24 25 26 27 28 28 29 31 32 30 30 31 31
18 18 18 17 16 15 15 15 16 18 18 18 19 20 18 18 20 21 19 15 15 17 19 21 23 24 24 25 26 27 27 28 29 29 30 31 30 30
19 19 19 17 15 16 17 18 19 19 22 23 22 20 21 23 21 20 17 16 16 17 19 20 22 23 25 25 25 25 26 26 26 27 28 28 28 28
20 20 19 17 17 18 19 19 18 19 19 19 21 23 27 22 21 17 15 17 18 19 21 21 21 22 22 23 23 24 24 25 25 25 26 27 27 27
18 18 17 18 21 23 22 20 20 21 23 24 24 27 22 18 14 16 18 19 21 21 20 20 20 21 22 22 22 22 22 23 24 26 27 28 27 27
17 16 16 18 18 21 22 22 23 25 28 28 25 21 15 14 17 18 21 24 19 20 19 20 22 21 21 21 21 22 23 24 24 25 26 27 27 29
17 17 17 17 19 19 19 22 24 25 26 23 19 15 15 17 22 26 23 21 21 21 21 21 20 19 20 19 21 22 23 25 26 26 27 27 28 28
18 18 18 19 18 19 20 24 27 23 17 17 16 17 21 25 25 21 22 22 22 21 19 19 20 19 21 22 22 23 24 25 25 26 27 28 29 29
18 18 19 18 19 21 23 28 19 16 16 16 20 24 24 20 20 22 23 21 19 19 20 19 20 21 22 22 23 21 22 23 25 26 28 29 32 33
17 18 17 19 20 23 25 18 18 14 17 24 22 16 16 17 19 20 22 21 20 19 17 20 21 21 19 19 22 23 24 24 25 26 28 29 31 32
17 16 17 19 21 21 20 18 16 20 23 18 15 16 17 18 19 20 21 23 21 20 20 22 21 21 21 21 22 24 25 26 27 28 29 28 29 32
17 18 19 21 21 20 18 18 20 21 17 15 16 18 19 21 22 22 22 23 23 23 23 23 21 22 21 21 20 23 25 28 29 31 31 31 31 32
22 21 21 19 18 15 15 19 18 15 15 17 19 20 21 22 22 22 23 23 23 23 24 24 25 24 24 23 23 25 26 28 29 31 32 32 32 33
21 21 17 16 14 14 14 14 15 15 17 19 20 20 21 21 21 21 21 20 21 21 23 24 26 27 25 26 26 26 27 27 30 32 32 32 33 33
20 15 12 11 12 12 13 14 15 16 18 19 20 19 19 19 20 20 21 21 20 20 21 23 25 27 28 28 26 27 28 29 30 31 31 31 32 32
16 12 11 13 13 14 15 16 17 18 18 20 19 19 19 19 19 21 21 20 20 20 21 23 25 25 26 26 28 27 29 29 29 31 32 30 30 33
12 13 13 14 14 15 16 17 18 18 19 20 20 19 20 20 19 19 20 20 20 21 22 25 25 26 23 22 25 28 29 29 30 29 30 31 30 32
13 14 14 14 15 16 17 18 19 19 19 19 20 20 20 20 19 19 20 20 21 22 23 24 25 26 24 24 24 27 29 31 30 29 30 31 32 34
13 13 14 15 16 17 18 19 19 19 20 20 19 20 20 20 20 20 20 21 22 23 23 23 25 27 29 29 27 26 28 30 30 31 31 30 28 30
13 14 14 16 17 19 19 19 18 18 19 19 19 20 21 21 21 21 21 22 23 23 24 26 27 28 27 26 25 26 27 28 29 30 33 33 29 26
14 14 16 17 18 19 19 18 18 18 19 19 20 20 21 21 22 23 24 25 24 25 25 24 26 26 26 26 25 26 27 27 27 28 31 34 34 35

GFSNE_sfc_30mbdewp_045.txt.gz
Dewpoint
16 17 18 18 19 19 19 19 19 17 16 15 13 15 15 17 18 20 19 20 21 23 24 25 25 25 26 26 27 30 31 30 32 32 32 33 32 33
16 16 18 18 18 19 20 19 19 18 16 16 16 16 18 19 20 20 19 20 22 22 23 23 22 23 25 26 27 28 29 30 31 32 33 33 33 33
17 17 18 18 18 18 18 17 17 17 16 17 19 20 20 20 20 20 21 22 21 21 20 21 23 24 25 26 27 27 28 29 29 30 32 33 33 32
17 18 18 17 18 17 16 16 17 18 19 19 20 21 21 21 20 22 23 22 19 18 19 21 23 24 24 25 26 27 27 28 28 29 31 32 31 32
18 18 19 18 17 17 17 18 19 20 20 20 20 20 21 22 24 25 21 19 17 18 19 20 22 24 24 25 25 25 26 26 26 27 28 29 29 30
19 19 19 19 17 17 19 21 20 20 21 21 21 23 24 27 24 19 17 18 19 19 21 23 22 22 23 23 23 25 25 25 26 26 27 27 28 29
19 18 17 18 19 21 21 22 22 22 23 24 24 26 25 20 18 17 17 19 20 23 21 21 21 21 22 23 22 23 23 24 25 26 27 28 29 29
17 16 17 17 17 19 21 21 21 21 25 28 26 24 22 18 17 18 21 22 22 21 21 21 21 21 22 22 22 23 24 25 26 27 27 28 28 29
17 17 17 17 19 19 19 19 22 23 24 24 22 19 18 18 21 22 24 24 21 21 21 21 23 21 21 21 22 24 25 26 27 28 28 29 30 30
17 17 18 18 19 19 20 24 25 27 24 19 18 18 19 22 28 29 23 22 22 22 21 21 21 20 21 23 23 24 25 26 26 27 27 28 29 32
17 17 18 19 18 20 22 25 25 20 19 17 19 21 23 22 20 20 22 22 20 19 20 20 21 22 22 22 22 22 23 24 26 27 28 29 30 33
18 18 17 17 19 21 22 22 20 18 18 21 22 21 18 17 19 20 22 23 21 19 19 20 22 22 19 19 21 22 24 24 26 27 28 29 31 32
20 18 18 19 21 22 21 20 19 19 21 22 18 17 18 19 21 22 23 24 22 20 20 22 22 21 20 20 20 21 23 24 26 27 29 30 31 33
18 19 21 22 21 20 19 18 19 21 18 16 17 18 19 21 22 22 22 23 24 23 24 24 22 21 20 19 19 21 23 25 28 29 30 33 35 34
20 21 21 20 19 16 15 17 17 16 16 18 19 20 21 22 22 23 23 24 24 23 23 23 24 24 24 22 21 23 24 26 28 30 32 33 32 33
22 22 19 17 13 14 14 14 15 16 18 20 21 21 21 21 21 21 22 22 22 21 22 23 25 26 25 25 25 24 25 26 29 32 32 32 31 32
20 19 15 11 13 13 14 15 16 17 19 21 22 21 20 20 20 20 21 22 21 19 20 22 24 25 26 27 26 26 27 28 29 30 30 29 30 31
18 14 12 14 14 14 15 17 18 19 20 22 21 20 20 20 20 21 21 21 20 20 21 22 23 25 24 25 26 27 27 28 29 29 29 29 28 30
13 14 15 15 15 16 17 18 19 20 21 21 21 20 20 21 20 19 20 21 21 20 21 23 24 25 22 20 22 26 26 27 28 29 28 29 29 31
14 15 15 15 16 17 19 19 20 20 20 20 20 21 20 20 20 20 20 21 21 22 23 23 23 24 24 23 24 26 28 29 30 29 28 30 32 32
14 14 15 16 17 19 20 20 20 20 21 21 20 20 20 21 20 20 21 22 23 23 22 23 24 26 27 29 25 24 26 28 30 30 30 30 29 30
15 15 16 17 18 20 20 20 20 19 19 20 20 20 21 21 21 21 22 22 23 24 25 26 25 25 27 25 25 26 26 28 29 30 32 34 30 27
16 16 17 18 19 20 20 19 19 19 19 20 20 21 21 21 22 22 23 24 25 26 24 24 24 25 24 25 26 27 27 27 28 28 30 35 35 35

GFSNE_sfc_30mbdewp_048.txt.gz
Dewpoint
17 18 19 20 20 20 21 20 19 17 17 17 16 18 18 19 20 22 21 21 23 23 25 25 25 26 26 26 27 28 30 31 32 33 34 34 34 34
17 16 18 20 20 20 20 21 20 19 17 17 17 18 19 20 21 21 21 22 22 23 25 24 24 24 25 26 27 29 30 31 31 32 33 34 33 34
17 18 19 19 19 20 20 19 18 18 17 18 18 21 21 21 21 22 22 21 23 24 23 23 23 24 25 26 27 27 28 30 31 32 32 33 34 34
17 18 19 19 19 19 19 18 18 19 19 19 20 20 21 21 21 21 23 26 24 21 22 21 22 24 24 26 26 27 27 27 28 29 30 31 30 32
18 19 19 20 19 19 18 19 21 21 22 21 21 21 21 23 24 26 25 21 20 19 19 21 21 24 26 25 25 25 25 26 27 27 28 28 29 30
20 20 20 19 19 18 20 20 21 22 22 22 22 23 24 26 26 23 20 18 18 20 21 23 26 23 24 23 24 25 25 25 26 27 27 28 29 30
19 19 18 20 20 20 20 21 22 22 22 24 25 24 23 23 22 21 18 18 19 21 24 22 21 22 22 22 23 24 24 26 26 27 28 29 29 29
19 18 18 20 18 20 21 21 21 21 23 23 24 25 25 23 19 18 19 20 20 24 21 21 21 21 22 23 23 24 25 26 27 28 29 29 30 31
19 18 18 17 19 19 21 20 21 23 24 23 23 21 19 19 20 21 23 25 24 22 21 21 21 21 21 21 22 24 25 26 28 28 29 29 31 32
18 17 18 18 19 20 20 22 24 25 26 25 20 19 20 21 24 28 26 22 22 22 21 21 21 20 20 22 22 23 25 26 26 27 28 29 30 31
18 19 20 19 20 20 22 23 24 24 21 20 20 22 23 22 21 20 22 21 20 19 20 20 19 21 21 20 21 22 22 23 25 26 28 29 30 31
20 21 21 19 21 21 22 23 21 20 20 21 22 21 19 19 19 20 21 22 21 19 18 19 20 21 17 17 19 20 22 22 24 25 27 28 29 31
21 20 19 20 22 23 22 20 19 20 20 21 18 17 18 19 19 21 22 23 21 19 20 21 21 20 20 19 18 20 20 21 23 24 26 29 30 31
19 19 21 23 22 21 20 18 19 20 16 16 17 18 19 21 21 22 22 23 23 23 23 24 22 21 20 18 17 19 21 22 24 26 27 29 30 32
20 21 22 21 20 17 16 17 17 16 16 17 20 20 20 21 22 22 21 22 22 23 23 23 23 23 22 20 20 21 22 23 25 27 28 30 32 31
22 22 21 18 15 15 15 15 16 17 18 19 19 20 21 21 20 20 21 20 20 20 21 22 22 24 23 23 23 23 23 24 26 27 30 32 31 31
20 19 16 14 15 15 15 16 17 17 19 19 20 20 20 19 19 19 20 21 20 19 19 21 22 24 24 24 23 23 24 25 27 27 28 28 28 30
17 14 14 15 16 15 16 16 17 18 19 20 20 20 19 19 19 20 21 19 19 19 19 21 22 23 23 23 25 25 25 25 26 27 27 28 28 28
14 15 16 16 16 16 16 17 18 19 19 20 20 19 19 19 19 18 19 19 19 19 20 21 24 23 20 19 21 24 27 27 27 27 28 28 29 29
15 15 15 15 16 16 17 18 19 19 19 19 19 20 20 19 18 18 19 19 20 21 22 22 23 25 24 23 23 25 27 27 29 28 27 28 30 31
15 15 16 16 17 18 19 19 19 19 20 21 19 20 20 20 19 19 19 20 21 22 21 22 24 26 27 26 25 23 25 27 29 30 30 29 29 30
16 16 17 17 18 19 19 19 19 18 19 19 19 20 20 20 20 20 20 20 21 23 23 26 26 25 25 25 24 24 26 27 28 29 30 31 30 27
17 17 18 18 19 19 19 19 18 18 19 19 19 20 21 20 21 21 21 22 23 24 26 25 25 24 23 25 26 26 26 26 27 27 28 30 32 34

GFSNE_sfc_30mbdewp_051.txt.gz
Dewpoint
18 19 19 21 21 21 21 21 19 17 16 18 17 18 19 20 21 23 22 22 24 25 25 27 27 27 27 27 27 30 31 33 34 33 34 34 34 35
18 17 18 20 20 20 20 21 21 20 17 17 17 19 19 21 22 23 22 23 23 24 26 26 25 26 26 27 28 28 32 30 32 33 34 34 34 35
17 18 19 20 20 20 20 20 19 19 17 18 19 21 21 21 22 22 22 22 23 25 25 25 25 25 25 26 27 27 29 31 30 32 33 34 34 34
17 18 19 20 19 20 20 19 18 19 20 19 21 21 22 22 22 22 24 25 26 24 23 22 22 24 24 26 27 29 26 27 29 29 31 30 31 33
19 19 19 20 19 20 20 19 20 20 21 21 21 23 23 24 24 26 26 25 23 22 20 20 22 25 27 27 26 26 26 27 27 27 28 29 29 30
20 20 20 19 19 19 19 20 20 21 22 22 23 23 24 23 25 23 22 22 20 19 19 21 24 25 24 24 25 25 25 26 27 27 29 31 31 32
20 19 19 20 21 20 20 21 22 22 22 22 24 23 22 22 23 22 21 20 19 20 21 23 25 22 22 23 23 23 25 26 26 28 29 31 32 32
20 20 19 21 19 20 20 20 22 21 22 23 24 23 22 22 20 20 20 20 20 23 23 22 22 21 22 22 23 24 24 25 27 28 28 30 31 31
19 18 18 18 21 20 21 22 22 23 24 24 24 23 23 20 20 21 24 25 24 23 22 21 21 20 21 21 22 23 25 26 27 27 28 29 29 31
19 19 20 20 21 21 21 22 24 24 25 26 24 22 21 22 25 26 24 22 22 21 21 20 20 19 20 21 22 23 24 25 25 26 26 28 29 30
20 21 22 22 22 22 22 22 23 24 24 21 22 23 24 22 21 21 20 20 18 18 20 20 19 19 20 20 20 22 21 22 23 25 26 27 28 29
20 22 23 21 21 22 23 23 20 19 19 21 21 19 18 19 20 20 20 20 19 19 17 19 20 21 17 17 18 19 20 21 22 24 25 26 27 28
21 20 20 22 23 23 22 21 19 20 20 16 16 17 18 19 20 21 22 23 20 19 20 22 21 20 20 19 19 19 20 20 21 22 23 25 27 29
21 20 21 24 22 21 19 18 19 20 16 16 17 18 20 21 21 21 22 23 23 22 22 23 21 20 20 18 17 18 19 21 22 23 24 26 28 29
22 22 23 21 18 17 17 18 18 16 17 17 19 19 20 21 22 22 21 21 21 22 22 22 22 21 21 19 18 19 20 21 23 24 26 26 27 28
23 22 19 16 16 17 16 16 16 17 18 19 19 20 20 21 20 20 20 20 19 18 20 21 22 22 21 21 22 21 21 22 23 24 26 27 28 28
19 16 14 15 16 16 15 16 16 17 18 19 19 19 19 19 19 19 19 19 19 18 18 19 21 22 22 23 21 21 22 22 24 25 26 26 27 27
15 14 15 15 16 15 16 16 17 18 18 19 19 18 18 18 18 19 20 19 18 18 18 19 20 20 21 22 24 24 25 25 25 26 26 26 26 27
14 15 15 16 16 16 16 17 17 18 19 19 19 19 18 19 19 18 18 18 18 18 18 19 22 22 19 17 20 24 24 26 26 25 26 27 27 28
15 16 16 16 16 17 17 18 18 18 18 18 19 20 20 19 18 18 18 18 18 19 21 21 21 22 22 22 23 24 26 26 27 26 27 28 29 29
16 16 16 17 17 18 18 18 18 18 19 20 18 19 20 20 18 18 19 20 21 20 19 20 22 25 27 27 23 21 23 25 27 28 29 28 27 27
16 16 17 18 18 18 18 18 18 18 18 18 19 19 20 20 19 20 20 20 20 20 21 23 25 25 25 24 22 22 24 26 27 28 29 30 29 26
17 18 18 19 19 19 19 18 18 18 18 19 19 20 21 21 22 22 22 22 22 22 24 23 24 24 24 24 24 25 25 25 25 27 28 30 31 32

GFSNE_sfc_30mbdewp_054.txt.gz
Dewpoint
20 19 19 21 22 21 21 21 18 15 16 18 17 18 19 20 22 23 23 24 24 25 26 27 27 28 28 28 27 29 35 31 33 33 34 34 35 35
19 17 18 20 20 21 21 21 22 19 17 19 17 19 20 22 22 23 23 24 24 25 26 26 27 27 27 28 30 29 28 32 32 33 33 34 34 34
18 18 18 20 20 20 21 20 20 20 17 18 19 20 22 22 22 23 23 23 23 25 26 26 26 26 26 26 26 28 28 30 33 32 31 32 34 34
17 18 18 19 20 20 20 20 19 19 19 18 20 21 22 23 23 23 24 24 25 26 26 25 24 24 25 26 27 28 30 28 28 29 29 28 30 31
21 20 20 20 20 20 20 19 19 20 20 21 21 22 23 23 25 24 25 26 25 24 23 22 23 24 26 27 27 26 26 27 27 27 27 28 29 30
21 20 20 20 19 18 19 19 20 20 21 21 22 22 23 25 24 22 21 21 21 21 21 22 24 25 25 25 25 25 26 26 27 27 27 29 31 32
20 20 20 22 24 22 21 21 21 21 22 21 22 23 23 22 21 22 21 20 20 21 22 22 24 25 24 24 23 23 24 26 26 27 28 29 30 31
19 19 19 19 20 23 23 22 22 22 22 22 23 24 23 23 22 22 20 20 20 22 23 22 22 21 22 22 23 24 25 25 25 26 28 30 30 32
18 18 19 20 22 21 23 23 23 24 23 24 24 24 23 23 22 22 23 24 22 22 22 20 20 20 21 21 22 23 24 25 26 26 27 28 29 30
20 20 20 22 22 23 23 23 23 24 24 24 25 25 24 23 26 25 22 22 21 21 20 18 19 19 20 20 21 22 24 25 25 26 26 26 26 28
20 21 23 23 23 23 23 23 24 24 24 22 22 24 25 23 21 21 21 20 18 18 19 19 19 19 19 19 20 22 22 22 22 23 25 26 27 27
20 21 23 22 22 24 24 22 21 19 19 21 20 17 17 18 20 20 20 20 19 17 17 18 19 20 17 18 18 19 19 21 22 23 24 25 26 26
21 21 21 23 24 23 21 20 19 20 20 16 16 17 18 19 20 21 22 22 20 19 19 21 21 20 19 18 18 19 20 19 20 20 22 23 25 26
21 21 22 24 22 20 19 19 20 20 16 16 17 18 19 20 20 21 22 22 23 22 22 22 19 19 18 17 16 17 19 20 21 21 23 24 26 27
23 23 23 21 18 17 18 19 19 16 17 17 19 19 19 20 21 21 22 21 21 21 22 22 22 20 20 18 17 18 19 20 21 22 23 24 25 26
23 18 17 16 17 17 17 16 17 17 18 19 19 19 20 20 20 20 20 19 19 18 19 20 21 21 19 20 20 19 20 20 22 23 23 24 25 27
18 14 14 15 16 15 16 16 16 17 18 19 19 19 18 19 18 19 19 18 18 17 17 18 20 21 21 21 19 20 20 21 22 23 24 25 25 26
15 14 15 15 16 16 16 16 17 18 18 18 18 18 18 18 18 19 20 19 17 17 17 18 19 19 19 20 23 21 22 22 24 25 26 25 25 26
15 15 16 16 16 17 17 17 17 17 18 18 18 18 18 19 19 18 18 18 17 17 18 18 20 21 18 16 18 21 24 26 26 25 25 24 25 26
15 16 16 17 17 17 17 17 17 17 17 17 18 19 19 18 18 18 18 18 18 19 20 20 20 21 20 20 22 23 26 26 26 25 24 25 27 28
15 16 17 17 17 18 18 17 17 17 19 19 17 18 19 19 18 19 19 20 21 21 19 20 21 24 26 26 23 21 22 24 26 27 27 27 25 26
16 16 17 18 18 18 18 18 17 17 17 17 18 19 20 21 20 20 20 21 21 21 21 22 23 25 25 24 22 23 23 25 26 28 30 31 28 26
16 17 18 18 18 18 18 18 17 17 18 19 19 20 21 22 22 22 22 23 23 24 24 24 24 25 25 25 25 24 25 26 26 27 28 29 30 31

GFSNE_sfc_30mbdewp_057.txt.gz
Dewpoint
20 20 20 21 22 21 21 20 17 13 15 17 16 19 19 20 22 24 23 24 26 26 27 27 28 28 28 29 29 28 30 30 32 32 33 33 34 35
20 19 19 21 21 22 22 21 21 19 16 19 17 18 19 21 23 24 24 25 24 26 26 27 27 28 28 28 28 29 28 29 30 32 33 33 34 35
20 20 21 21 21 21 22 21 20 21 19 19 19 19 20 21 22 23 24 24 24 25 26 27 27 27 27 27 27 27 28 30 31 32 33 35 34 33
23 20 19 20 20 20 20 20 20 20 19 18 19 20 21 22 23 23 24 24 24 25 26 26 26 26 27 27 27 28 29 31 31 29 29 30 29 30
23 25 24 20 20 21 20 20 20 20 20 20 20 22 22 23 23 25 25 24 25 24 23 23 24 25 27 27 27 27 27 27 27 27 27 28 28 29
25 23 22 20 20 19 19 20 20 20 21 21 21 22 23 23 24 24 22 22 22 21 22 23 25 26 25 25 26 26 26 27 27 27 27 28 28 28
20 20 20 23 24 24 23 22 22 22 21 21 22 22 22 23 23 22 22 22 21 22 22 23 23 24 23 23 23 24 24 26 27 27 28 28 30 31
18 18 18 19 22 24 23 23 23 23 23 22 22 23 24 23 23 22 22 22 20 22 23 22 22 21 21 21 22 24 25 26 26 26 27 28 29 30
18 18 19 20 23 22 23 24 24 25 24 25 24 24 23 23 23 23 23 23 22 22 22 20 20 20 20 20 22 23 24 25 26 26 26 26 28 30
19 20 20 21 23 23 23 23 24 24 25 24 24 24 24 24 27 26 24 21 22 21 21 18 18 18 19 20 21 23 24 25 26 26 25 25 26 27
19 21 23 22 23 23 23 24 25 24 23 22 22 24 24 23 21 21 21 20 18 18 19 18 18 18 19 19 19 22 23 23 23 23 24 25 25 26
21 21 22 22 24 24 24 22 20 19 19 21 19 17 17 17 21 20 20 19 19 17 18 18 19 20 17 18 18 19 19 21 22 23 24 24 25 25
21 21 21 24 24 23 22 19 19 21 20 16 16 17 18 19 20 21 21 21 19 18 19 21 21 20 19 18 18 19 19 19 19 20 21 22 24 25
22 22 22 24 22 20 19 20 21 21 16 16 17 18 19 20 20 20 21 22 23 22 22 22 19 19 17 16 15 16 18 19 20 20 21 23 24 26
23 23 21 19 18 18 19 20 20 17 17 17 18 19 19 20 20 20 21 21 21 21 22 21 21 20 19 17 16 17 18 19 20 21 21 22 23 23
21 16 16 16 17 18 17 16 17 17 18 19 18 19 19 19 19 19 19 19 18 17 18 19 20 20 18 19 19 18 18 19 20 21 22 23 23 25
19 14 14 15 16 16 16 17 17 17 18 18 18 18 18 18 18 18 18 18 17 17 17 18 19 20 20 20 18 18 19 20 20 21 22 22 24 25
15 14 15 16 16 16 16 17 17 17 17 18 18 17 17 17 17 19 20 18 17 17 17 18 18 19 18 19 22 19 20 21 22 23 24 24 24 24
14 15 16 16 16 17 17 17 16 17 17 17 17 17 17 18 19 17 17 18 18 18 18 18 19 19 18 16 18 20 24 25 25 26 25 25 24 24
15 15 16 16 17 17 17 17 17 17 17 17 18 19 18 18 18 18 18 18 18 20 21 21 22 22 20 19 21 23 24 26 26 25 24 25 26 26
15 16 16 17 17 17 17 17 17 17 19 19 17 17 18 20 19 20 20 21 22 22 20 21 23 25 26 26 23 21 23 25 28 27 27 26 25 25
15 16 16 17 17 17 17 17 17 17 17 17 17 18 20 21 21 21 22 22 22 22 23 24 26 27 26 25 23 23 24 26 27 28 30 31 28 25
15 16 17 17 17 17 17 17 17 17 17 18 18 20 21 22 23 23 23 23 25 25 25 24 24 25 25 25 25 25 25 26 26 27 28 30 31 31

GFSNE_sfc_30mbdewp_063.txt.gz
Dewpoint
28 26 26 26 24 24 22 20 18 16 14 17 18 21 21 21 21 21 23 24 27 27 28 28 28 29 29 29 30 30 31 31 31 32 33 32 35 34
25 23 24 24 26 27 27 27 29 26 25 19 19 20 22 20 21 23 23 26 26 27 27 27 28 28 28 29 29 30 31 31 32 32 32 35 35 36
23 23 25 28 29 28 29 28 28 25 24 22 20 20 20 20 21 22 23 23 23 25 26 26 27 28 28 29 29 29 29 31 32 33 33 34 35 36
28 28 28 30 30 30 30 29 27 26 22 19 20 19 20 22 22 23 23 23 23 23 25 27 27 27 28 28 29 29 29 30 31 31 30 31 32 33
29 29 31 32 32 32 30 28 27 24 25 24 21 21 22 23 23 24 24 24 23 24 24 25 26 27 28 28 28 28 28 28 28 29 29 29 29 30
32 32 31 31 30 30 29 28 27 26 25 23 22 23 23 24 24 23 22 21 20 22 23 25 26 25 25 26 26 27 27 27 28 28 28 28 28 29
32 32 31 31 32 30 28 28 26 24 23 24 24 24 23 23 22 22 21 21 22 23 22 21 21 22 22 23 23 24 25 26 28 28 28 29 30 31
27 27 28 29 30 29 27 25 24 24 27 25 25 24 23 22 22 21 22 23 21 21 21 21 22 21 21 21 22 24 25 26 27 27 28 28 30 30
23 21 22 24 26 24 24 24 25 26 26 26 24 22 22 21 23 24 24 24 22 22 22 21 21 20 20 20 22 23 24 25 27 27 27 27 28 29
26 25 23 23 23 24 24 26 26 26 25 24 23 22 23 25 25 26 23 22 21 21 20 19 19 18 19 19 21 22 24 25 26 26 26 26 26 26
22 22 23 22 24 24 25 26 23 21 21 21 24 25 24 23 22 22 22 21 19 18 19 18 19 19 19 20 19 21 22 23 23 23 24 25 26 26
22 22 23 24 24 24 23 21 19 18 20 23 20 18 18 19 22 21 21 21 20 18 19 19 19 19 18 17 18 19 19 20 21 23 24 24 25 25
21 21 22 24 22 21 21 19 19 22 21 18 17 18 19 19 20 21 21 22 20 19 20 22 21 20 19 18 18 18 19 19 19 19 20 22 23 24
21 22 22 21 19 20 20 22 23 22 17 17 18 19 20 21 21 21 21 22 22 22 22 23 20 19 19 18 17 18 19 21 21 21 21 22 24 25
21 22 20 18 19 19 21 21 20 17 17 19 19 20 20 21 22 21 22 22 22 22 22 22 22 21 21 18 18 19 19 20 21 22 23 23 23 23
20 16 16 18 19 19 18 18 17 18 19 19 19 19 20 20 20 21 21 21 20 20 22 22 22 22 19 20 20 19 20 20 21 23 23 24 24 25
19 13 15 15 16 16 17 17 17 18 18 18 18 18 19 19 19 20 20 20 19 20 20 21 22 22 23 22 20 20 21 21 22 23 23 23 23 24
14 14 15 16 16 16 16 17 17 18 18 18 18 18 18 19 19 21 22 21 19 20 20 22 22 23 22 23 23 22 22 23 24 25 26 24 24 25
14 15 15 16 16 17 17 18 18 18 18 18 17 18 18 18 20 21 21 21 21 21 22 23 25 24 21 19 21 24 26 27 26 26 26 26 25 26
15 15 16 16 17 17 17 17 17 17 17 17 18 19 19 19 20 21 21 22 22 23 24 24 24 25 24 23 24 25 26 27 27 26 27 28 28 28
14 15 16 16 17 18 18 17 17 17 18 19 17 17 19 20 20 21 22 23 23 24 23 23 24 26 28 28 24 23 25 26 27 28 28 28 27 27
14 15 16 17 17 17 17 17 17 17 17 17 18 19 20 21 21 22 23 23 23 24 24 26 27 27 27 26 23 23 24 26 27 27 28 30 29 26
15 15 16 17 17 17 17 17 16 17 18 19 19 20 21 21 22 23 23 24 26 26 26 25 25 26 25 25 24 24 24 24 25 26 27 29 30 32

GFSNE_sfc_30mbdewp_066.txt.gz
Dewpoint
40 34 31 29 30 29 29 30 28 24 21 22 23 23 23 22 23 23 20 21 25 28 29 29 29 30 30 30 31 31 31 31 32 32 33 35 35 36
35 33 32 29 29 29 30 31 31 27 28 26 26 28 28 26 25 23 21 23 25 26 28 29 29 29 29 29 29 30 30 31 33 33 34 35 37 37
34 31 30 32 30 30 30 30 30 31 31 32 32 31 27 24 22 22 22 22 22 22 25 26 27 28 29 29 29 30 30 30 31 33 33 34 36 36
28 28 29 31 32 32 32 32 32 31 30 29 26 26 25 25 27 25 22 22 22 22 24 26 28 29 29 29 29 29 29 29 30 30 31 33 33 32
30 30 31 32 32 33 32 32 31 31 29 27 25 26 25 23 22 23 23 22 22 21 21 23 25 27 28 29 29 29 28 29 29 29 29 30 30 30
33 33 33 33 32 32 31 30 29 27 26 26 23 22 22 23 24 22 20 19 18 20 22 24 25 25 25 26 27 27 28 28 29 29 29 29 29 29
32 32 32 33 33 31 30 28 27 26 25 25 24 23 23 21 20 20 19 19 21 22 22 21 21 21 22 22 23 23 24 26 28 28 29 28 29 30
29 29 31 31 31 31 29 28 26 25 26 26 25 22 21 20 19 18 20 22 22 22 21 21 21 21 21 21 22 23 25 27 27 28 28 28 27 28
27 28 28 27 27 23 24 25 25 26 26 25 23 21 19 19 22 25 23 24 23 22 21 20 21 20 20 19 21 23 24 25 27 27 28 28 28 28
27 26 24 22 22 24 24 25 26 26 24 22 21 20 20 22 24 25 23 22 22 21 21 20 20 19 20 20 22 23 24 24 25 26 26 26 26 26
24 21 22 20 23 26 24 27 23 21 19 20 23 25 26 25 24 23 23 22 21 21 21 20 20 21 21 22 21 21 22 23 23 25 25 26 26 27
20 20 23 24 24 24 23 21 19 15 20 24 21 18 18 19 22 22 22 22 22 21 21 21 21 21 20 19 20 21 21 22 22 23 24 25 25 26
20 19 20 23 22 21 21 19 17 22 22 19 17 18 19 20 21 22 23 24 22 22 22 24 22 22 21 21 20 22 22 22 22 22 22 23 24 25
19 20 20 21 20 21 21 23 24 23 18 18 19 20 22 23 25 25 25 24 24 24 25 25 22 21 21 20 19 21 23 24 24 24 24 25 26 26
20 21 18 18 19 19 21 22 21 18 18 20 21 22 23 24 24 25 26 26 26 26 26 26 24 22 22 21 21 21 22 23 25 25 26 27 26 25
21 16 16 18 19 19 18 18 18 18 19 20 20 21 22 23 23 24 24 24 23 23 27 27 26 25 22 22 22 22 22 22 24 25 26 26 27 26
19 11 13 15 16 16 17 18 18 18 20 20 21 21 21 22 23 24 24 24 23 21 22 25 27 27 27 25 23 23 23 24 25 26 26 26 26 26
11 11 14 16 17 17 17 18 19 20 20 21 21 21 21 22 22 23 25 23 22 22 22 24 25 25 25 26 27 25 25 26 27 28 29 28 27 28
12 15 16 17 18 18 19 20 20 21 21 21 21 21 21 22 23 23 23 23 23 23 24 25 26 25 23 21 23 25 27 28 28 27 27 27 27 28
14 16 17 18 18 19 20 20 20 21 21 20 20 21 22 23 22 23 23 22 22 24 24 25 25 26 25 24 25 26 27 27 27 27 27 28 29 30
14 16 17 18 20 20 20 20 20 20 20 21 21 21 22 23 22 23 23 22 23 24 24 24 25 27 29 29 26 25 26 27 27 27 28 28 27 27
14 16 17 19 20 20 20 20 20 20 21 21 22 22 23 23 23 23 23 24 24 24 25 28 27 27 28 27 25 25 24 26 28 28 28 28 28 25
15 16 17 19 21 21 21 20 20 20 21 22 22 22 23 23 23 23 24 24 24 25 27 25 26 27 28 28 26 25 24 24 26 26 27 28 30 32

GFSNE_sfc_30mbdewp_069.txt.gz
Dewpoint
53 47 38 36 36 36 36 38 37 34 31 29 26 27 28 30 30 31 30 29 28 27 29 30 31 31 32 32 32 32 32 32 32 33 33 35 34 36
42 40 38 38 36 37 36 36 36 34 30 29 29 32 32 32 32 34 32 28 26 26 27 28 28 30 30 30 31 31 31 31 32 32 33 33 33 37
37 35 35 35 35 35 35 34 34 34 33 32 32 33 33 32 31 29 26 24 24 23 24 26 27 29 29 30 31 31 31 31 31 31 31 32 34 34
34 34 33 33 34 34 34 34 33 32 32 31 31 31 30 31 29 29 27 23 22 23 25 26 27 27 29 30 30 30 30 30 31 31 31 30 30 31
32 33 34 33 33 33 33 32 32 32 31 30 29 27 27 28 26 24 24 24 23 22 21 21 24 26 28 29 30 30 31 31 30 30 30 30 30 31
35 35 35 34 33 32 32 31 31 30 29 28 26 24 24 24 25 24 23 22 20 20 23 24 25 25 25 25 26 27 27 28 28 29 29 29 29 29
33 33 33 34 34 32 30 30 29 27 25 25 26 25 25 24 22 22 20 20 22 24 24 24 23 24 24 24 23 23 24 25 27 28 29 28 28 29
30 32 33 33 33 32 31 31 31 27 26 27 27 25 23 22 21 20 23 23 22 24 24 24 24 23 23 23 23 24 25 25 26 27 28 28 28 29
30 30 29 28 29 26 25 25 25 26 26 26 24 23 21 20 23 24 25 24 24 24 24 22 23 23 23 22 22 24 25 26 27 27 27 28 28 28
30 29 25 22 22 25 24 25 26 26 26 24 23 21 20 22 24 25 25 24 24 24 24 22 23 23 23 23 24 24 25 26 26 27 27 27 28 28
28 27 23 20 24 26 25 28 25 22 20 19 21 24 26 27 26 25 24 24 22 23 24 23 23 23 23 23 24 24 23 24 25 26 26 27 27 27
20 20 23 25 25 25 23 21 20 17 18 25 24 21 20 20 21 23 24 23 23 22 24 23 23 23 23 21 23 24 23 24 24 25 26 26 26 26
19 19 20 23 22 22 22 21 18 22 23 22 19 19 20 21 23 23 24 24 24 23 24 25 25 23 22 22 22 23 23 23 24 25 25 25 26 26
17 19 20 21 20 21 21 21 24 24 21 18 19 21 23 25 26 26 26 25 26 25 25 26 24 22 21 20 19 20 22 24 24 25 26 26 27 27
20 22 19 18 19 20 21 23 22 20 19 20 23 24 25 25 25 25 25 26 26 27 26 27 26 25 24 21 20 21 22 23 24 25 27 27 27 27
21 19 14 18 19 20 19 18 19 19 20 21 21 23 23 23 23 24 24 24 23 23 25 26 27 28 25 24 23 22 23 22 24 25 26 27 28 28
21 12 11 14 16 17 17 18 19 19 20 22 22 21 21 22 22 24 23 24 24 22 22 24 26 27 28 27 24 25 25 25 25 26 27 27 27 28
15 10 12 16 17 18 18 19 21 22 21 22 21 21 21 21 22 23 24 23 23 23 23 24 24 26 26 27 28 26 26 27 28 28 29 28 27 27
11 13 16 18 19 20 20 21 21 21 22 21 22 21 22 21 21 23 24 24 23 22 23 24 25 25 23 21 23 26 25 26 27 27 27 26 26 27
13 16 18 19 19 20 21 21 21 22 21 21 21 21 22 22 22 22 23 23 23 24 24 24 24 24 25 24 25 26 28 27 27 28 28 27 27 28
14 16 18 19 20 20 22 22 22 21 22 23 22 22 23 22 22 23 23 23 24 24 23 23 24 26 28 29 26 24 25 27 28 27 27 27 26 26
14 15 17 19 20 21 21 22 21 20 21 22 23 23 23 24 23 23 23 23 23 23 24 24 26 29 27 26 25 26 25 26 27 27 28 28 28 25
16 16 18 20 21 21 21 22 22 22 21 22 23 23 23 23 23 23 23 23 23 24 25 25 28 26 25 26 28 24 24 25 25 25 25 27 29 30

GFSNE_sfc_30mbdewp_072.txt.gz
Dewpoint
56 53 45 40 39 38 38 39 40 36 32 34 34 36 35 35 35 34 33 33 33 36 34 31 31 32 32 33 33 33 33 33 33 34 34 34 35 35
45 43 41 39 39 39 39 40 41 39 36 33 33 34 34 35 34 35 34 34 32 29 28 28 29 29 30 31 32 32 32 33 33 33 34 33 33 34
40 39 38 37 38 38 37 38 37 37 36 32 33 33 33 34 33 31 30 29 26 27 26 27 28 29 30 31 31 32 32 32 32 32 32 32 32 33
36 36 36 36 36 36 36 35 34 34 34 32 31 31 31 31 31 30 29 27 25 24 26 27 26 26 27 29 30 31 31 32 32 31 31 32 31 31
35 34 35 35 34 34 34 33 33 32 32 31 30 31 30 30 29 28 27 25 25 24 22 22 25 27 28 29 29 30 29 30 30 30 30 30 30 30
35 35 35 34 34 33 33 32 31 29 29 27 27 26 26 26 25 24 24 23 21 23 25 25 26 27 26 26 26 27 27 27 27 28 29 29 29 29
34 34 35 35 35 34 32 31 30 28 27 26 26 26 26 24 23 23 21 23 24 24 25 25 24 25 25 26 25 25 25 27 27 28 28 28 28 28
31 32 32 32 34 34 33 32 30 28 27 27 27 25 24 23 21 23 23 21 21 25 23 24 25 24 24 25 25 25 26 26 27 28 28 29 29 28
30 31 31 31 30 29 26 25 26 27 28 26 25 24 22 21 22 21 22 23 24 25 25 23 24 23 24 24 25 26 26 27 28 29 29 29 29 28
30 30 29 26 26 28 27 26 27 27 27 25 24 22 21 24 26 25 25 24 25 25 25 22 23 23 24 25 25 25 27 28 27 27 27 28 28 28
27 26 24 23 25 26 25 27 25 21 19 18 19 23 26 27 27 26 23 22 23 22 24 23 23 23 23 23 24 26 25 25 26 27 27 28 28 28
21 23 24 25 25 25 23 21 20 17 22 24 24 23 21 20 21 22 22 20 22 22 24 23 23 23 21 23 23 23 24 24 24 25 26 27 27 27
19 19 21 23 22 22 22 21 19 22 24 23 19 20 21 23 25 25 25 25 24 23 24 26 25 23 23 22 22 22 22 22 23 23 25 26 27 27
18 21 22 21 20 21 21 23 25 25 22 19 20 21 23 24 25 25 26 26 26 26 26 27 24 23 22 20 20 21 22 23 23 24 25 26 27 27
21 21 20 17 19 20 21 22 22 19 19 20 22 22 23 23 24 24 25 27 27 27 27 27 26 26 25 22 22 22 22 22 24 24 25 25 25 26
22 21 15 16 18 20 20 19 19 19 20 20 20 22 22 23 22 23 23 24 24 24 26 26 26 27 25 25 25 24 24 24 25 26 26 27 27 28
21 15 11 14 17 18 18 18 19 20 21 21 21 22 22 22 22 23 23 24 24 23 23 24 26 27 27 27 25 25 25 25 26 26 27 27 28 29
17 11 12 17 18 19 19 20 21 21 21 21 21 21 21 21 21 22 23 24 23 23 24 23 24 25 25 25 28 26 26 27 28 27 27 26 26 27
13 14 16 18 19 20 20 20 21 21 22 21 23 22 22 22 21 21 21 22 22 23 23 24 25 25 22 19 21 25 24 25 26 26 26 26 26 26
13 14 16 18 19 19 20 21 21 21 21 21 21 21 21 22 20 20 20 21 21 22 24 23 24 23 23 22 23 26 28 27 27 27 27 28 29 29
13 15 16 18 18 19 20 21 22 22 22 22 22 22 22 22 21 21 21 22 22 23 22 21 22 24 26 26 24 24 24 26 28 28 28 28 27 26
14 14 16 17 19 20 20 21 21 21 21 21 21 22 22 22 21 21 22 21 21 22 22 23 24 25 26 26 24 24 25 27 26 26 28 29 28 25
14 16 16 17 18 20 20 21 21 22 22 22 21 21 21 21 22 22 22 22 22 23 22 23 23 27 25 24 25 26 23 23 24 25 26 27 28 28

GFSNE_sfc_30mbdewp_075.txt.gz
Dewpoint
54 53 49 44 44 43 43 44 45 40 35 35 34 37 38 39 38 38 37 37 38 38 37 38 37 33 32 33 33 34 34 34 34 34 34 35 35 35
46 46 43 41 41 41 42 42 43 42 39 35 35 34 36 37 37 37 36 36 36 36 35 32 30 30 30 31 32 33 33 33 34 34 34 34 34 36
41 40 39 39 39 39 39 40 40 39 38 33 34 34 34 34 35 36 34 32 31 30 29 29 28 29 30 30 30 32 32 33 33 32 33 33 33 35
37 38 37 37 37 37 37 36 35 35 36 32 32 32 32 33 32 31 30 28 27 27 27 28 27 26 27 29 30 31 31 31 31 31 32 32 32 32
35 36 35 35 34 34 34 34 33 33 33 32 31 32 31 30 30 29 28 28 27 26 24 23 26 27 29 30 29 29 29 30 30 30 29 29 30 30
35 35 35 34 34 33 33 32 32 31 30 30 27 27 27 28 28 25 24 25 22 23 24 26 27 27 28 28 28 27 27 27 28 29 29 29 29 28
34 35 35 35 35 34 32 32 32 31 30 28 26 27 26 24 23 23 21 23 22 24 24 24 24 25 26 27 26 26 28 28 28 29 29 29 28 29
31 32 32 32 34 34 35 35 31 30 29 27 27 26 24 23 22 22 21 21 20 24 24 24 25 24 25 25 27 27 28 28 29 29 30 29 29 29
30 30 30 30 30 29 29 28 27 28 28 27 25 25 23 21 22 21 23 23 23 25 25 23 24 24 24 24 26 27 28 28 29 30 29 28 28 28
29 28 27 27 26 28 27 26 26 27 26 26 25 23 22 22 25 25 25 24 24 24 25 22 23 23 24 24 25 26 27 26 27 28 28 29 29 29
26 25 25 23 26 27 24 22 23 20 19 21 21 24 26 27 28 26 24 21 20 22 24 23 23 23 23 23 24 25 25 25 25 26 27 28 28 28
24 23 24 24 24 24 22 21 19 18 23 24 23 21 21 21 24 23 22 19 20 20 23 24 23 24 20 22 22 23 23 23 24 24 25 27 27 27
19 20 21 23 22 22 22 21 19 21 25 22 19 20 22 24 25 26 26 24 24 22 24 27 25 24 23 21 22 22 22 22 22 23 24 25 27 28
19 21 22 21 20 21 21 23 24 25 21 19 20 22 23 23 23 24 24 25 26 25 26 27 24 24 23 21 20 21 22 23 24 23 24 25 26 26
20 22 21 16 19 20 22 22 22 19 19 19 20 21 22 22 22 23 24 25 26 27 27 28 27 26 25 23 22 22 23 24 25 25 25 25 26 26
22 19 18 16 18 20 20 19 19 19 20 20 20 21 22 22 22 24 24 24 23 23 24 25 27 27 25 25 25 24 24 24 25 26 26 27 27 28
20 16 11 14 17 18 19 20 21 22 21 21 21 21 21 20 21 22 23 23 21 21 22 23 26 26 26 25 24 24 24 24 25 26 26 26 27 28
18 12 13 17 18 19 19 20 21 21 21 22 22 22 21 21 21 22 23 23 21 20 21 22 24 24 24 24 26 25 25 25 26 26 26 26 26 26
12 14 16 18 19 19 20 20 21 21 23 22 22 22 22 21 21 20 20 20 20 20 20 21 23 24 20 18 20 23 23 24 25 26 26 26 26 26
14 13 14 16 18 19 19 20 20 21 22 21 22 22 21 21 20 19 19 18 19 20 22 23 22 21 21 20 22 24 25 25 25 25 25 26 28 28
13 13 15 16 17 18 19 20 22 21 22 22 21 21 20 21 20 20 20 21 22 22 20 20 21 23 24 24 22 22 23 26 26 25 26 27 26 25
13 14 14 16 16 17 19 20 21 21 21 21 21 21 21 21 20 20 20 20 20 20 21 22 23 23 23 23 22 23 23 25 26 28 27 27 27 24
13 14 15 15 15 16 17 19 19 20 20 20 20 20 20 20 20 21 21 21 21 21 21 21 22 22 23 24 24 25 24 24 25 24 24 26 27 29

GFSNE_sfc_30mbdewp_078.txt.gz
Dewpoint
50 50 49 46 46 46 47 47 47 43 39 37 35 38 39 40 42 41 40 41 42 41 42 41 40 41 39 35 34 34 35 35 35 34 35 35 36 36
45 45 43 42 42 42 43 43 44 44 42 37 36 36 37 38 39 38 38 39 39 40 39 39 38 34 32 32 33 33 33 33 34 34 34 34 35 36
41 40 39 40 39 39 40 40 40 40 40 34 34 34 35 36 36 37 37 36 35 36 35 32 30 30 31 31 30 31 32 32 32 32 33 34 36 37
38 38 37 37 37 37 36 36 35 35 36 34 33 33 33 34 34 33 33 30 29 28 29 29 29 28 27 29 31 31 32 31 31 31 31 31 31 33
36 36 36 35 35 35 34 33 33 33 33 33 31 32 32 31 30 30 29 28 27 27 26 25 26 27 28 30 31 31 30 30 30 31 31 31 31 31
35 35 35 34 34 33 33 32 31 31 30 30 30 30 29 29 28 25 24 24 22 23 24 26 26 27 28 29 29 29 28 29 29 30 30 30 30 31
35 35 35 36 35 34 32 32 32 32 31 28 27 27 26 24 24 23 22 22 22 24 24 24 24 25 25 27 27 27 29 30 30 30 30 30 30 30
31 32 32 31 33 35 35 33 31 30 29 29 28 26 24 23 22 22 21 20 19 24 24 24 25 24 24 25 27 28 28 29 30 30 30 29 30 30
29 29 29 29 28 28 28 28 28 28 28 27 25 24 23 21 21 21 23 23 23 24 24 22 24 23 24 24 25 28 29 29 29 29 29 30 30 30
27 25 25 25 26 28 27 26 26 26 24 26 26 24 22 22 23 23 24 24 24 23 25 21 23 23 23 24 26 27 27 27 27 28 28 29 29 29
25 25 24 25 27 27 23 22 22 20 21 26 25 25 26 27 27 26 25 22 20 22 24 23 23 23 23 23 24 26 24 25 25 27 27 27 27 28
23 21 25 24 24 23 22 21 19 19 22 24 23 20 22 24 27 23 22 19 19 20 23 25 23 23 19 22 22 22 22 24 25 25 25 27 27 26
19 20 20 24 22 21 23 20 19 21 25 21 19 20 23 24 25 26 24 23 23 22 24 26 24 24 23 21 22 22 22 22 22 23 25 26 27 27
19 21 21 22 19 21 21 23 24 24 20 20 21 22 22 22 23 23 24 25 26 25 26 27 25 23 22 21 21 21 22 24 24 24 24 25 27 27
20 23 23 18 19 19 22 23 23 19 19 19 20 20 21 21 22 23 24 24 25 26 26 25 26 25 25 23 22 22 22 23 25 26 25 25 25 26
21 20 18 17 18 20 20 19 19 20 20 20 20 21 22 21 21 23 22 23 22 21 21 22 22 24 25 25 24 23 23 22 24 26 26 26 27 28
20 15 11 14 17 18 19 20 21 22 21 21 22 22 22 22 22 21 22 22 21 20 20 21 22 24 26 26 23 23 23 24 25 25 25 25 26 27
18 13 12 17 18 19 19 20 20 20 21 21 22 22 22 22 21 21 21 20 19 19 19 20 20 21 22 23 26 24 24 24 24 24 25 25 25 26
14 12 14 16 18 19 19 19 19 20 22 21 22 22 22 22 21 19 18 18 18 18 18 19 19 20 20 17 19 21 21 22 23 24 25 25 25 26
15 14 13 14 16 18 18 19 19 21 21 22 22 22 21 20 18 18 18 17 17 18 19 21 20 21 20 19 20 22 24 24 24 23 24 25 26 27
13 13 14 15 16 17 17 19 20 21 21 22 22 21 20 19 18 18 18 20 21 21 19 18 19 22 24 24 21 21 22 24 25 25 25 25 25 26
14 13 14 14 15 15 15 16 19 19 20 20 20 20 19 19 18 18 19 18 18 19 19 20 22 23 23 21 20 21 22 24 26 27 27 27 26 23
14 14 14 14 14 14 14 15 17 19 19 19 19 19 18 18 18 19 19 19 19 19 19 20 21 22 22 22 22 22 23 24 23 23 24 24 26 27

GFSNE_sfc_30mbdewp_081.txt.gz
Dewpoint
49 49 49 46 46 46 47 48 48 45 42 38 36 39 40 42 44 42 42 44 44 44 43 43 43 43 43 41 40 38 38 37 36 35 35 36 36 36
45 45 43 42 42 42 43 43 44 44 42 37 36 37 39 39 40 39 39 41 41 42 42 41 41 40 37 35 34 34 34 34 34 35 35 35 35 36
42 41 40 40 40 40 40 40 40 40 40 34 35 35 36 37 37 38 38 38 37 37 38 38 36 33 32 32 32 32 32 33 33 33 33 34 34 36
39 39 38 38 37 37 36 36 36 36 37 35 33 33 34 35 35 35 34 33 31 30 30 30 30 31 30 29 31 32 32 33 33 33 33 33 33 33
36 36 36 36 35 34 34 33 33 34 34 33 32 33 32 32 32 32 30 28 27 28 28 27 27 27 28 29 32 32 32 32 32 31 31 32 32 32
34 34 34 34 33 33 32 31 31 31 31 30 30 30 29 30 29 25 24 24 22 23 24 25 27 27 28 30 30 30 30 30 30 31 31 32 32 32
34 35 36 35 35 33 32 32 31 30 30 28 27 28 26 25 24 23 22 22 21 23 24 23 24 24 25 27 28 28 29 30 31 31 31 31 31 31
32 32 31 30 33 34 33 32 31 28 28 28 27 25 24 23 22 21 21 20 17 24 24 23 24 23 24 24 27 28 29 30 31 31 31 31 30 30
29 27 26 28 27 26 28 28 29 29 29 26 24 24 23 22 21 20 22 22 22 23 24 21 24 23 24 24 26 27 30 30 30 30 29 30 29 30
24 23 24 25 27 26 26 26 26 22 25 26 26 24 24 22 22 22 23 24 24 23 24 21 23 22 23 24 26 28 28 27 27 28 28 29 29 29
24 24 25 25 27 27 22 22 21 20 23 27 27 27 27 27 26 25 25 24 20 21 23 23 23 22 23 23 23 25 28 24 26 27 27 27 27 28
22 21 25 24 24 23 22 20 18 18 22 25 22 20 22 25 28 24 22 19 19 19 22 24 24 22 19 20 22 21 21 24 25 25 26 27 27 26
19 19 20 25 23 21 23 20 19 21 25 21 19 21 24 24 25 25 23 22 22 22 24 26 24 24 23 21 22 23 23 23 23 24 26 26 27 28
18 20 21 23 19 21 22 22 24 23 20 20 21 21 22 22 22 22 23 25 25 25 26 26 25 23 21 21 20 21 22 24 24 24 24 26 27 27
20 22 23 22 19 19 22 23 24 19 19 19 20 20 21 21 22 23 23 24 25 26 27 24 23 24 23 22 21 22 23 23 24 24 24 24 24 25
21 21 18 18 20 21 21 19 19 20 20 20 20 21 21 22 20 22 22 22 22 21 21 20 20 20 21 23 23 22 23 23 23 25 25 25 26 26
21 14 11 14 16 18 19 20 21 21 21 20 21 21 22 22 21 22 21 22 20 19 19 20 21 22 22 22 21 22 22 23 24 24 24 24 24 25
19 15 11 15 17 18 19 20 20 21 21 21 22 22 22 22 22 20 19 19 18 17 17 17 18 19 19 20 24 23 23 23 24 24 24 23 23 24
17 13 12 15 16 19 19 19 19 20 22 22 22 22 22 22 21 18 17 16 17 17 17 17 17 18 17 16 19 20 20 20 21 22 23 24 24 24
15 14 13 13 14 16 17 18 19 20 21 22 22 22 22 21 18 17 16 16 16 16 17 17 18 19 18 17 19 21 23 23 22 22 22 24 25 27
13 13 13 14 14 15 16 17 17 18 20 21 22 22 21 19 17 16 17 19 20 20 17 17 18 20 22 24 21 20 21 23 24 24 24 25 24 24
18 17 14 14 14 14 14 14 14 16 19 19 20 20 19 19 17 17 17 17 17 18 18 18 19 20 21 21 20 20 21 22 24 25 27 27 25 23
17 17 15 14 14 13 13 13 13 14 15 18 19 18 18 18 17 17 18 18 18 18 18 18 19 19 20 21 21 20 21 21 22 24 24 25 26 27

GFSNE_sfc_30mbdewp_084.txt.gz
Dewpoint
49 49 49 46 46 47 48 49 48 44 43 38 38 39 41 43 44 43 44 46 46 45 44 44 43 44 43 44 42 41 41 41 40 39 37 36 37 37
45 45 44 42 42 43 43 44 45 45 43 38 37 37 39 40 42 40 40 41 41 42 42 43 42 42 40 39 39 37 36 35 35 35 35 35 36 36
42 42 41 41 40 40 39 40 40 40 41 35 35 35 36 37 38 38 38 38 37 38 39 40 39 38 36 34 33 33 33 33 33 34 34 34 34 35
40 39 39 38 37 37 37 36 36 36 37 36 33 34 34 35 35 35 35 33 32 32 32 32 31 32 31 31 31 32 32 33 33 33 34 34 34 34
37 37 36 36 35 34 34 33 33 33 33 33 32 33 32 32 32 32 31 30 27 28 28 28 28 28 28 29 31 32 33 33 33 33 32 32 33 33
34 34 33 33 32 31 31 31 31 31 31 31 30 30 30 30 28 26 24 24 23 23 24 26 27 28 28 28 30 31 31 31 31 31 32 33 33 32
35 36 36 36 35 33 31 30 30 29 29 28 27 27 26 25 24 23 21 21 21 23 23 23 23 23 24 27 28 28 29 30 32 32 32 32 31 31
31 31 30 31 33 34 32 32 30 27 27 27 26 24 23 22 22 21 20 19 14 23 24 23 24 23 24 24 27 28 29 30 31 32 31 31 32 32
26 25 26 28 27 26 29 30 29 30 28 25 23 23 22 22 21 20 21 21 22 23 24 21 23 22 23 23 26 27 29 31 30 30 30 30 30 30
23 23 24 26 28 24 26 26 23 22 26 26 24 23 23 22 22 21 23 24 25 23 24 20 23 22 23 23 26 28 29 27 27 28 28 29 29 28
24 24 25 25 26 26 21 22 21 19 25 28 27 27 28 27 25 25 24 24 20 21 23 23 22 22 23 22 22 25 28 28 26 27 27 28 28 28
21 22 26 24 23 24 21 19 17 18 24 24 21 21 24 27 27 24 22 19 19 19 22 23 23 21 19 20 21 21 22 24 26 25 26 28 28 27
19 19 20 25 22 22 24 18 20 22 25 20 20 22 24 23 24 25 22 21 21 22 24 25 23 23 21 20 21 22 22 23 23 24 25 26 27 28
17 20 21 24 19 21 23 22 24 23 20 20 20 21 21 21 22 22 23 24 26 25 25 26 24 23 22 20 19 21 21 23 24 24 24 26 27 27
20 22 23 22 20 20 22 23 24 19 19 19 20 20 21 21 21 22 22 23 22 24 25 27 26 24 22 20 20 21 22 22 24 24 23 23 24 25
21 21 19 19 21 21 21 20 19 19 20 20 20 20 21 21 21 22 21 20 21 20 21 21 19 18 20 20 21 21 21 22 23 24 24 24 24 25
22 15 11 13 15 17 19 20 21 21 22 20 20 21 21 22 21 23 23 21 19 18 17 18 19 20 19 20 19 20 21 21 23 24 24 23 23 24
20 16 12 13 15 17 17 19 20 20 21 21 21 22 22 21 21 22 20 17 16 16 16 16 16 17 18 19 22 20 21 22 23 23 23 22 22 23
20 18 14 13 15 16 18 18 18 19 20 20 21 21 22 22 21 19 17 16 16 15 15 15 15 16 15 15 17 21 22 21 20 21 22 23 22 23
16 15 15 14 13 14 16 17 17 18 20 20 21 22 21 21 21 17 16 15 15 15 16 16 16 16 16 16 17 19 21 21 21 21 21 22 24 25
16 12 13 13 13 14 14 15 15 16 17 18 20 21 21 21 19 17 16 18 19 19 17 16 17 19 20 21 18 18 20 22 23 23 23 23 23 23
20 18 17 16 14 13 13 13 13 14 15 16 19 19 19 20 19 18 16 16 16 16 16 17 18 18 18 18 17 18 19 21 23 24 24 25 24 22
19 18 18 17 16 14 13 12 12 12 12 13 14 16 18 17 17 17 17 16 17 16 16 17 18 18 18 19 19 20 20 20 21 21 22 26 27 28

GFSNE_sfc_30mbdewp_087.txt.gz
Dewpoint
51 50 49 47 47 48 49 50 49 45 44 40 41 40 42 43 45 45 45 48 47 45 44 44 44 44 43 43 42 41 41 41 41 41 41 40 38 38
47 46 45 44 43 44 45 45 46 47 44 40 38 38 40 41 41 40 41 41 42 42 42 42 42 42 41 40 40 38 38 37 37 36 35 36 36 37
44 43 42 41 41 40 41 41 41 42 42 36 36 36 37 38 38 38 38 38 37 38 39 40 39 38 37 36 34 34 34 34 34 34 34 35 35 36
41 40 39 39 38 38 38 37 37 38 40 37 35 34 35 35 36 35 35 33 33 31 32 32 32 32 32 32 32 32 32 33 33 34 35 35 35 34
39 38 37 37 36 35 35 35 34 34 35 36 33 33 33 33 33 33 31 28 26 26 28 28 29 28 29 30 31 31 33 33 34 34 33 33 33 33
35 35 34 34 33 33 33 32 32 33 33 33 33 32 31 31 28 26 25 24 23 22 24 26 29 29 28 28 29 31 32 32 31 31 32 33 33 33
36 36 35 34 34 33 32 31 31 31 30 31 29 28 27 25 24 23 22 21 21 24 23 23 23 23 23 26 28 28 29 31 32 32 33 33 32 32
32 32 32 32 34 34 33 32 29 28 28 28 27 25 24 22 22 22 21 20 15 24 24 22 24 23 24 24 26 29 29 30 31 31 32 31 31 31
29 28 29 28 28 29 31 30 30 31 27 25 22 22 22 22 23 23 22 23 21 24 24 21 23 22 23 23 26 28 29 30 30 29 30 30 30 31
25 26 27 27 26 26 26 26 24 27 26 24 22 23 23 23 23 23 24 25 26 24 24 22 23 22 23 23 26 29 30 29 29 28 29 29 29 30
25 26 26 26 28 23 24 24 21 20 27 29 27 28 28 28 26 26 25 25 21 21 23 23 23 23 23 22 21 26 27 28 27 27 28 28 29 29
24 26 26 24 24 26 19 17 18 18 25 23 21 22 25 28 27 24 25 23 22 22 23 24 24 23 22 21 22 23 22 23 26 26 26 27 28 27
19 19 22 25 22 23 23 17 19 23 25 20 20 23 23 23 23 24 24 25 24 23 24 25 25 23 22 21 22 23 23 23 22 23 25 26 27 28
17 19 21 23 20 22 24 23 27 24 20 20 21 21 22 23 23 23 23 25 25 25 26 27 24 24 22 21 20 22 22 23 24 25 24 26 27 27
19 22 24 23 21 20 22 24 26 20 19 20 21 22 23 23 23 24 23 23 23 24 25 25 24 24 24 21 20 21 22 23 24 25 27 26 25 25
23 22 19 20 19 20 22 22 19 19 20 21 21 22 22 23 22 22 22 22 22 22 23 23 22 22 21 22 21 21 21 22 24 24 25 26 26 26
20 15 11 12 15 17 18 19 20 21 23 22 21 21 21 21 21 22 23 22 20 19 19 20 21 21 21 21 20 21 21 22 23 24 25 24 25 24
22 16 13 11 14 15 17 18 20 21 21 22 22 22 21 21 21 22 23 20 18 18 18 19 19 19 20 21 23 21 22 22 23 25 25 23 23 23
22 20 17 14 14 16 18 19 20 21 21 22 22 21 22 22 21 20 20 19 18 18 18 19 18 18 18 17 18 23 23 23 23 22 22 23 23 24
21 20 18 17 16 15 16 18 19 20 20 21 22 22 22 21 20 19 19 18 18 17 18 19 19 18 18 18 18 19 20 21 22 22 22 23 24 25
18 16 14 14 15 16 16 17 17 17 18 19 21 21 21 21 19 19 18 18 19 19 18 18 19 20 21 21 18 17 20 21 22 24 24 23 22 23
21 20 18 17 17 17 16 16 15 16 18 18 18 19 21 21 20 19 16 17 17 17 17 18 19 20 19 18 18 18 19 20 21 22 23 24 24 21
21 21 21 21 20 19 18 16 15 14 15 15 15 16 17 18 19 19 17 17 17 16 16 16 18 19 19 19 19 19 20 20 21 22 23 24 24 25

GFSNE_sfc_30mbdewp_090.txt.gz
Dewpoint
54 53 51 49 50 50 51 52 51 46 45 44 44 42 43 44 44 45 45 46 46 46 45 45 44 44 44 43 42 42 41 41 41 41 41 41 41 40
50 49 48 47 46 47 47 47 48 49 45 43 41 40 41 41 41 40 40 41 42 43 42 42 42 42 41 40 40 39 38 38 37 37 37 36 36 37
48 47 45 44 43 43 44 44 45 45 44 38 38 38 39 39 39 40 38 38 37 38 38 38 38 37 37 36 35 35 35 35 35 35 35 35 37 38
44 43 41 41 41 41 42 41 42 42 42 39 37 36 37 37 37 36 35 34 34 32 33 33 33 33 33 33 33 33 33 33 33 35 34 34 34 35
42 42 40 40 39 39 39 39 38 38 40 39 35 35 34 35 35 34 31 30 26 25 27 28 29 29 29 30 31 31 32 33 34 34 34 34 34 34
39 38 38 38 37 37 36 36 36 36 37 37 36 35 34 33 31 29 27 25 24 22 24 25 27 29 30 29 28 29 32 32 32 31 32 33 33 33
36 36 36 35 35 34 35 35 35 34 35 36 34 32 32 29 28 25 22 21 21 22 21 20 21 22 23 25 27 29 29 30 32 33 33 33 33 33
36 36 36 36 36 35 33 31 30 31 31 31 31 28 24 23 22 21 21 20 16 23 22 20 23 22 23 24 26 29 30 31 31 32 32 32 31 31
34 34 31 31 32 32 32 31 31 29 27 23 21 19 20 21 25 25 22 22 19 22 23 21 22 21 23 22 25 28 29 30 31 30 30 30 31 31
29 28 26 25 25 25 24 25 26 25 23 21 21 21 22 23 23 26 24 23 25 23 24 24 23 22 23 23 25 29 30 31 29 30 29 29 30 30
25 27 27 27 26 25 25 24 22 26 29 28 29 28 28 29 27 25 26 25 22 21 23 23 24 24 24 23 21 26 27 28 29 28 28 29 29 30
23 24 25 23 28 22 17 18 18 19 22 21 22 23 26 28 27 25 25 26 25 25 25 25 25 24 25 24 23 24 23 23 24 27 26 28 28 27
22 23 25 25 24 26 19 13 14 19 25 20 19 21 22 23 24 24 25 27 25 25 25 24 24 24 23 23 23 24 25 24 23 24 25 26 27 28
16 17 19 24 22 23 24 23 27 25 19 18 20 21 22 23 24 24 24 25 25 25 26 27 24 24 23 22 22 23 24 25 25 26 26 27 28 27
16 19 24 25 21 21 23 24 27 22 18 19 21 23 25 25 26 26 25 25 26 25 27 26 24 24 24 22 22 22 23 24 26 27 28 28 27 27
22 24 21 19 21 16 22 25 23 20 19 21 22 23 24 24 24 23 23 23 23 23 26 26 25 24 23 23 23 22 23 23 26 26 27 26 27 27
21 18 15 15 17 17 18 19 19 19 21 21 23 23 23 22 22 23 23 22 21 21 22 24 25 24 24 24 22 22 23 25 27 26 25 25 26 26
20 15 11 9 10 11 13 15 17 19 21 23 23 23 23 22 22 22 22 22 21 21 21 22 22 22 22 23 25 23 23 24 25 25 25 24 24 25
22 17 16 15 12 13 14 16 19 20 24 24 24 23 23 22 22 21 21 21 20 20 21 22 22 21 19 19 20 26 24 24 25 24 24 25 24 25
23 22 21 19 17 16 16 18 19 21 23 23 23 23 23 22 21 20 20 20 20 19 20 21 21 21 20 19 20 20 22 23 22 23 23 24 25 25
23 23 21 19 17 18 19 19 20 20 21 22 22 22 22 21 20 20 19 18 18 19 19 20 21 22 22 22 19 19 22 23 23 23 24 24 23 23
22 21 19 19 19 20 20 20 20 19 20 21 20 21 21 21 20 20 19 18 17 17 18 19 20 20 20 18 18 19 21 21 22 22 23 23 23 21
25 24 23 23 24 23 23 22 21 19 20 20 20 20 20 19 18 18 18 18 17 17 17 16 17 18 19 20 19 19 19 20 21 22 24 24 24 26

GFSNE_sfc_30mbdewp_093.txt.gz
Dewpoint
59 57 55 52 52 52 52 53 52 48 48 45 44 43 43 44 44 44 44 46 47 46 46 46 45 45 43 43 42 42 41 41 41 41 41 41 40 40
52 51 49 49 49 49 49 49 49 50 47 44 41 41 42 42 42 41 41 41 42 43 43 43 43 42 42 41 40 38 38 38 38 38 38 37 37 37
49 49 48 47 46 45 46 46 47 47 46 39 40 39 40 40 40 40 39 38 37 37 38 38 37 37 37 36 36 36 36 36 36 36 36 36 37 38
46 45 44 43 43 44 44 44 44 45 44 40 38 38 39 38 38 38 35 34 34 33 35 35 35 34 34 33 33 33 32 32 34 35 35 34 35 34
44 43 42 42 42 42 42 42 41 40 42 40 37 36 36 36 36 35 32 31 26 26 26 27 28 29 29 30 31 31 33 34 34 35 35 34 34 34
41 41 41 41 41 40 39 39 39 38 39 39 37 36 36 34 34 32 30 27 25 22 24 23 24 28 29 29 29 29 31 33 32 31 32 33 34 34
38 38 38 37 37 37 37 36 37 37 37 37 36 34 34 32 31 26 24 22 24 23 23 22 22 24 25 27 28 28 29 29 31 33 33 34 34 33
37 37 36 36 36 35 33 33 33 35 35 35 34 34 28 26 24 22 23 22 20 25 24 22 24 23 24 25 28 28 30 31 32 32 32 33 33 32
36 35 34 34 35 33 32 31 30 30 29 29 26 22 22 22 28 26 23 24 22 24 24 23 23 22 24 22 26 28 29 31 31 31 30 31 31 31
34 33 30 29 27 27 24 27 26 25 24 21 23 22 25 25 26 27 25 24 25 25 25 24 25 24 25 25 26 28 31 31 31 30 30 30 30 30
27 27 26 25 27 26 27 25 26 27 29 29 29 29 28 28 28 27 27 26 25 22 25 24 26 26 26 26 25 25 27 29 29 30 30 29 30 30
26 26 25 27 24 23 25 21 20 22 23 25 26 25 29 28 28 26 27 27 27 26 26 25 25 25 25 26 25 26 25 25 25 26 28 27 28 29
22 23 25 26 27 24 19 15 17 21 24 20 19 21 23 25 25 25 26 27 25 25 26 25 24 23 23 24 25 26 26 26 26 26 26 27 27 28
20 22 25 25 24 26 21 24 24 23 21 19 20 22 23 24 25 26 25 26 26 26 27 28 24 24 24 22 22 25 26 26 26 27 28 28 29 29
17 18 20 24 22 23 25 25 28 24 19 19 21 23 26 28 27 26 27 26 26 26 26 26 26 26 25 23 22 23 24 25 26 27 27 27 27 27
20 25 25 25 24 20 21 25 26 24 20 22 23 26 27 26 25 25 24 25 24 24 26 27 26 25 24 23 23 22 23 23 25 25 27 26 26 26
23 23 20 18 19 18 19 23 23 20 20 20 23 25 25 25 24 24 24 25 23 21 22 24 27 26 24 24 22 22 23 24 26 27 25 24 25 26
21 16 14 13 14 16 15 16 18 19 21 25 25 25 24 24 23 23 23 24 22 21 21 23 23 23 23 24 25 23 24 24 26 25 25 24 24 25
21 18 17 15 13 14 14 17 20 20 23 25 25 25 25 24 23 22 22 22 22 22 22 23 23 21 18 18 22 27 24 25 25 25 25 24 24 25
23 23 21 20 19 17 18 20 21 23 24 25 25 25 25 24 23 22 22 21 20 20 20 20 21 22 20 19 20 21 25 25 24 22 23 24 25 25
26 25 24 24 22 21 21 22 23 24 24 24 24 24 24 24 23 23 22 21 21 20 19 19 21 23 26 24 19 18 20 23 23 22 23 23 22 21
25 24 25 24 23 22 23 23 23 22 23 24 24 24 24 24 23 22 22 21 20 20 19 20 21 21 20 19 17 17 18 21 23 23 24 24 23 19
27 25 24 23 23 23 24 24 23 23 23 23 23 23 23 22 22 22 21 21 20 19 19 18 19 19 19 19 19 20 20 19 20 21 22 23 24 26

GFSNE_sfc_30mbdewp_096.txt.gz
Dewpoint
61 60 58 55 55 54 54 54 52 49 49 45 42 43 43 43 44 43 44 47 47 47 47 47 47 45 45 44 43 42 41 41 41 41 41 40 40 39
55 54 52 51 51 51 50 51 51 51 48 44 41 42 42 42 42 41 42 42 43 44 44 43 43 43 42 41 40 39 39 39 39 39 39 38 38 40
51 51 50 49 48 47 47 47 48 48 47 40 40 40 40 40 41 40 39 39 37 39 39 38 38 38 38 37 37 37 37 37 37 36 36 36 37 36
48 47 46 46 45 45 45 45 46 45 45 41 38 38 39 39 38 38 35 35 33 36 37 37 36 35 35 35 34 34 33 33 35 36 35 34 34 34
46 44 43 44 43 43 43 42 42 42 43 40 37 37 36 36 36 35 34 29 26 28 27 27 29 29 30 31 31 30 33 34 34 34 35 35 34 35
43 43 42 43 42 41 41 40 39 39 40 38 37 36 35 34 35 33 29 28 25 23 25 24 24 27 27 28 28 29 30 32 32 31 32 33 34 34
39 38 38 39 40 39 38 37 38 38 38 37 36 35 33 32 31 27 25 23 24 23 23 22 23 24 25 28 28 28 28 29 30 33 33 34 34 34
36 36 37 37 37 37 36 36 36 36 36 36 34 33 32 28 24 23 23 21 20 26 24 21 24 22 25 26 29 28 29 31 32 33 33 33 33 33
36 36 35 36 34 34 34 33 33 32 32 32 32 27 24 24 25 24 23 22 22 25 23 23 24 22 25 24 27 28 28 31 32 32 32 31 31 32
35 34 33 31 31 26 29 26 25 27 26 24 23 25 25 25 25 26 24 24 25 24 24 22 26 24 26 27 27 27 30 32 32 31 30 31 31 31
29 28 27 26 27 27 27 26 26 27 30 30 29 29 29 29 26 27 26 25 25 23 25 24 26 25 26 27 26 24 25 29 30 30 31 29 30 30
27 27 28 26 27 27 26 24 25 26 27 26 24 29 28 29 28 25 27 26 25 25 25 24 24 24 21 26 26 26 26 27 27 27 28 28 28 28
25 24 25 30 25 22 20 20 21 24 24 22 21 23 25 24 25 25 27 25 24 24 26 24 23 23 23 23 24 24 25 26 27 27 28 28 29 29
22 24 25 26 26 26 19 21 22 25 22 19 20 21 22 24 24 26 25 26 26 25 26 25 23 24 23 22 21 23 23 24 25 26 26 27 28 28
19 22 27 26 24 25 24 25 25 22 19 19 20 22 24 26 25 24 25 25 24 24 24 24 24 23 24 22 22 22 23 24 25 25 26 26 25 26
19 20 23 25 24 22 25 23 27 24 20 20 21 25 26 24 23 24 23 23 23 22 25 26 24 24 22 23 23 22 24 22 23 24 25 27 26 26
23 25 23 21 23 21 18 24 25 25 22 21 24 25 25 24 24 24 24 23 23 21 22 25 28 26 25 24 22 22 23 22 23 24 27 25 25 26
23 21 20 18 18 19 18 19 23 22 20 20 22 24 24 24 23 23 23 24 22 22 22 22 23 23 23 22 25 23 22 22 22 24 24 23 23 25
23 19 17 16 15 16 18 18 18 19 20 22 24 23 24 23 24 22 22 22 23 22 22 22 22 22 19 17 20 23 24 22 24 24 24 24 23 23
24 22 20 18 17 15 15 16 18 19 20 22 23 24 24 23 22 21 21 20 21 20 20 21 21 22 20 18 18 20 22 21 21 21 22 22 24 24
26 24 24 23 21 20 18 18 19 20 22 22 23 24 24 23 23 22 22 22 22 20 19 18 19 21 23 24 20 19 19 20 22 24 23 22 22 21
26 26 26 25 25 23 22 21 21 22 23 23 23 23 23 23 23 22 22 21 21 20 19 18 19 20 19 19 17 17 17 18 20 21 22 22 22 20
27 26 26 26 26 25 23 22 22 22 22 23 23 23 23 23 23 23 22 21 21 20 19 19 19 19 18 18 18 19 19 19 20 20 21 23 23 24

GFSNE_sfc_30mbdewp_099.txt.gz
Dewpoint
61 61 60 59 58 57 56 55 53 50 49 44 42 43 43 44 44 44 46 47 48 48 48 47 47 46 46 45 45 44 43 42 41 41 41 41 40 40
57 58 56 54 54 53 53 53 53 52 49 44 42 42 43 42 43 42 43 43 45 46 45 44 44 43 43 42 41 40 40 40 40 40 39 39 39 40
53 53 52 51 50 49 49 49 50 50 49 40 40 41 41 41 41 40 40 38 39 41 41 39 39 39 39 39 39 39 39 38 38 37 37 37 38 37
51 50 49 48 48 47 47 46 47 47 46 42 39 38 39 40 40 38 35 35 35 38 38 38 38 37 37 36 35 35 34 35 36 36 35 35 34 35
48 47 46 46 45 45 45 44 44 43 43 40 38 38 37 37 37 36 34 28 28 30 29 30 30 30 31 32 31 32 34 34 34 34 35 35 34 35
45 44 44 44 44 43 42 41 41 41 41 40 37 36 35 36 36 32 29 28 24 24 25 24 25 27 27 28 29 29 31 32 33 32 32 33 34 34
40 40 40 42 42 41 40 39 39 38 39 38 37 35 34 33 33 29 29 25 24 23 22 22 23 23 24 29 28 29 28 29 30 32 33 34 34 35
37 37 38 39 39 39 39 38 38 37 37 36 36 34 33 31 27 25 23 21 20 26 23 20 24 22 25 26 30 29 29 31 32 33 33 33 34 33
36 36 36 36 36 36 37 36 36 36 36 35 35 33 28 26 24 23 22 22 21 24 23 23 24 22 25 26 28 28 28 31 32 32 32 31 31 32
36 36 35 33 32 31 27 26 27 27 25 27 28 25 25 26 25 24 22 23 24 24 24 22 26 25 26 27 29 27 29 32 32 32 31 31 31 31
34 33 31 31 31 30 25 24 26 29 30 30 28 28 28 28 27 25 24 24 24 23 25 23 25 24 25 27 26 26 27 28 30 30 30 30 30 31
27 28 30 27 29 29 26 25 23 28 28 26 29 30 29 30 29 27 26 25 24 24 25 23 23 23 20 25 25 25 26 28 29 29 29 29 29 29
26 26 27 29 28 29 27 25 25 27 27 21 24 26 24 25 25 27 26 25 24 24 26 23 22 22 22 22 23 24 25 24 25 25 28 29 30 29
24 24 26 31 27 24 21 22 24 26 23 20 21 22 24 24 25 25 26 25 25 24 26 24 21 22 22 21 21 23 23 24 25 24 25 28 28 27
23 25 26 28 27 27 22 23 26 24 21 20 20 22 23 24 25 24 25 24 23 23 24 23 23 22 22 21 21 22 23 22 24 23 25 24 24 26
22 24 26 28 26 25 26 25 26 22 20 20 21 24 25 24 24 23 23 23 23 22 24 26 25 22 22 21 22 21 22 21 22 23 23 24 27 26
22 23 24 24 24 23 21 24 27 26 23 21 22 24 25 25 23 23 23 22 22 21 21 23 27 25 25 24 22 22 22 22 22 22 23 23 25 25
23 22 23 22 22 23 20 19 24 26 24 21 23 25 25 24 23 23 23 22 21 21 21 21 21 23 24 24 26 22 22 22 21 22 23 24 23 23
25 23 22 22 20 19 20 20 19 24 24 22 21 23 23 23 25 23 22 22 22 22 21 21 20 21 18 17 19 24 24 23 23 24 22 22 22 23
28 25 21 20 19 18 19 20 20 21 21 21 21 22 23 23 22 22 21 21 20 21 20 20 20 20 19 17 17 19 22 21 20 19 19 21 22 23
28 26 25 23 21 20 19 18 18 19 19 20 21 22 23 23 22 22 22 22 21 19 19 19 19 21 20 21 20 19 20 22 21 19 20 21 21 21
27 26 26 25 24 23 22 21 20 20 22 21 21 22 23 23 23 22 22 22 22 21 21 19 18 18 21 20 19 18 17 19 20 20 21 22 21 18
26 26 26 26 26 26 25 24 22 21 22 23 22 22 23 22 23 23 22 22 22 20 20 19 19 18 19 18 18 18 18 19 19 19 20 22 22 23

GFSNE_sfc_30mbdewp_102.txt.gz
Dewpoint
59 60 59 59 59 58 57 56 55 50 49 44 43 43 44 44 45 45 46 48 49 49 48 48 47 47 47 47 47 46 45 43 43 42 42 41 40 40
56 56 57 57 57 56 56 55 54 53 50 44 42 43 43 43 44 43 44 44 47 46 45 45 44 44 44 43 43 42 42 42 41 41 40 39 39 40
53 54 54 53 54 52 52 52 52 52 50 41 41 42 42 42 42 42 40 39 41 42 42 41 41 41 41 41 41 40 40 40 39 38 38 38 39 38
51 51 51 50 50 49 49 49 49 49 47 43 39 40 40 41 41 38 37 36 38 39 40 39 39 39 39 38 37 36 36 36 37 37 36 35 35 35
50 49 49 48 48 47 47 46 46 45 44 42 39 38 38 39 39 36 32 30 32 33 34 34 33 33 34 34 34 34 35 35 34 35 35 35 35 35
46 46 46 46 46 45 44 44 43 43 42 40 38 37 36 37 37 34 31 28 24 24 27 26 25 28 29 30 30 30 31 33 33 33 32 33 34 34
41 41 41 43 44 43 42 42 41 40 41 39 37 36 34 35 35 32 30 26 24 23 22 22 24 23 24 30 28 29 29 30 30 32 34 34 34 35
39 38 39 41 41 42 41 40 39 38 38 38 37 35 34 33 31 29 27 23 23 26 21 21 24 22 25 25 30 30 30 31 32 33 33 34 34 34
37 37 36 37 38 38 38 38 39 39 38 36 37 35 33 31 28 25 24 22 21 24 22 22 24 23 25 26 29 28 29 31 32 32 33 33 32 32
37 37 36 34 34 32 29 29 28 26 31 34 35 33 29 28 27 25 23 23 24 25 24 23 26 24 26 27 30 27 28 32 32 33 32 31 31 32
35 35 34 33 34 31 27 27 28 29 31 30 29 29 30 29 27 24 22 22 22 23 25 23 24 24 25 26 25 28 29 28 30 31 29 30 30 31
30 30 34 31 33 31 25 24 26 29 29 29 30 30 29 29 29 24 25 21 23 22 25 23 23 22 22 24 25 25 25 30 31 31 31 30 30 30
28 27 28 31 31 31 29 25 23 28 28 28 26 26 26 26 27 27 26 25 23 24 26 22 21 22 21 22 23 24 24 23 24 25 27 29 29 30
26 26 26 31 29 29 28 27 28 28 24 21 24 24 24 24 25 26 26 25 25 25 27 22 21 21 19 20 20 22 22 23 25 24 24 27 27 27
24 25 26 30 31 27 24 22 25 25 23 20 21 23 24 24 25 24 24 23 23 25 25 23 22 20 21 20 20 21 21 22 22 23 24 23 23 25
25 26 28 28 28 27 26 24 26 24 22 21 21 23 24 24 24 23 23 23 22 22 24 24 24 23 21 21 21 21 21 20 21 22 23 22 23 25
22 22 24 26 26 25 24 25 27 25 23 21 22 24 24 24 24 23 22 22 20 20 21 22 27 24 24 22 22 22 21 22 23 22 22 21 23 24
24 22 23 23 24 24 22 21 24 27 25 22 22 24 25 24 24 23 22 21 20 20 20 20 22 23 24 23 26 22 22 22 23 21 22 22 22 23
25 23 23 24 24 23 24 22 20 24 26 25 22 24 25 24 25 22 22 21 21 20 20 20 20 19 18 16 18 24 23 22 22 23 23 21 20 20
28 27 25 24 23 23 22 22 22 22 23 24 24 22 23 23 23 23 22 22 21 20 21 20 20 19 18 17 15 18 25 22 21 20 19 20 21 23
29 29 28 25 23 22 21 20 21 21 21 22 23 22 22 22 23 23 23 23 22 20 20 19 20 22 20 20 19 19 20 22 22 20 18 19 19 21
28 28 28 26 26 25 24 22 21 20 21 21 21 22 22 23 23 23 23 22 24 23 21 20 18 19 20 20 19 19 18 19 20 20 21 21 20 18
27 27 27 27 27 26 26 25 23 22 22 22 22 21 22 22 22 23 22 22 22 22 22 20 19 18 19 19 20 19 19 18 19 19 20 21 22 23

GFSNE_sfc_30mbdewp_105.txt.gz
Dewpoint
58 59 58 59 59 59 57 56 54 51 49 46 44 44 45 45 46 46 47 49 49 49 49 49 48 48 48 48 48 48 47 45 44 44 43 42 41 41
54 54 55 56 56 57 57 56 55 54 51 45 43 43 44 44 45 44 45 46 47 47 46 46 45 44 44 44 44 44 43 43 43 42 41 40 41 41
52 52 52 53 53 53 53 53 53 53 52 42 42 42 43 43 43 43 42 41 43 44 43 43 42 42 42 43 42 42 42 42 41 40 39 39 40 39
51 51 51 51 51 50 50 51 51 50 48 44 39 40 41 42 41 40 39 36 39 41 41 41 41 41 40 40 39 38 38 38 39 38 38 37 37 36
48 49 49 48 49 48 47 47 47 47 45 43 39 39 39 41 39 36 34 32 34 39 39 38 37 37 37 36 36 36 37 36 35 35 35 35 35 35
44 44 45 46 46 46 45 45 44 44 43 42 39 37 37 38 38 34 31 27 26 25 28 28 27 31 32 32 32 31 32 33 33 33 33 33 34 34
40 40 40 42 43 44 44 43 42 42 42 40 39 37 35 36 36 33 31 26 24 23 22 23 25 23 26 30 29 30 29 30 31 31 34 34 35 35
38 38 38 39 40 42 42 42 41 40 40 39 38 37 35 35 33 32 28 26 26 25 21 21 23 22 25 26 30 30 30 31 31 33 33 34 34 34
38 37 37 37 38 39 39 38 39 40 39 38 38 37 35 34 32 29 27 24 22 24 21 19 24 23 25 26 31 29 29 30 31 31 33 34 33 32
38 37 37 36 35 34 32 32 29 29 33 36 36 36 35 32 32 29 26 24 24 25 23 20 25 23 26 26 32 28 28 31 33 33 33 32 31 32
36 35 35 34 35 34 30 30 29 29 31 32 32 32 31 31 28 26 24 23 22 22 25 24 25 25 25 26 26 29 30 29 31 32 31 30 31 31
32 31 35 34 35 34 26 27 28 29 30 30 30 30 31 31 29 25 25 22 22 21 25 22 23 23 21 24 25 25 25 31 31 31 31 31 31 30
30 29 28 35 34 34 30 25 25 29 30 28 27 27 27 27 27 26 26 22 21 23 26 23 21 22 20 22 23 24 24 24 24 25 27 28 29 30
28 28 27 30 33 32 32 29 28 30 25 26 24 25 25 25 26 26 26 25 25 24 27 22 21 20 19 19 19 22 23 23 24 23 24 27 26 27
26 25 28 28 33 29 27 25 27 27 22 21 24 23 24 25 25 24 24 24 25 26 24 22 21 19 19 18 19 21 21 22 22 22 23 23 23 23
29 27 27 28 28 29 29 25 25 26 23 22 21 24 25 24 24 23 23 22 22 23 25 22 22 21 20 21 20 20 21 20 20 21 22 22 22 23
27 22 22 26 28 27 25 26 26 26 24 22 22 23 23 24 24 23 22 22 21 21 22 25 26 24 22 21 20 20 20 20 22 22 22 20 21 23
29 23 22 22 25 26 25 23 25 26 25 23 22 23 24 24 24 23 22 22 21 21 20 21 24 24 24 23 25 21 21 22 22 23 21 20 22 22
29 25 23 23 23 25 25 25 24 24 27 26 23 23 24 24 25 23 23 22 21 21 20 19 19 19 18 16 18 25 22 22 23 22 22 22 20 20
30 28 25 24 24 24 24 25 24 23 24 25 25 24 24 24 24 24 23 22 22 21 20 19 20 19 18 16 14 17 25 22 22 21 20 21 21 21
29 29 27 26 26 25 24 23 23 22 22 23 24 24 24 23 23 24 23 24 23 21 20 20 21 23 20 20 19 19 20 24 22 20 19 19 19 20
28 28 29 29 28 26 25 24 23 22 23 23 22 23 23 23 22 22 23 22 24 24 21 21 19 21 20 20 19 19 18 19 21 22 22 21 19 17
30 28 28 28 28 27 27 26 24 23 22 22 22 21 22 22 22 23 23 23 23 23 24 21 20 19 19 20 20 20 20 19 19 19 20 21 22 23

GFSNE_sfc_30mbdewp_108.txt.gz
Dewpoint
57 57 57 57 58 58 58 57 54 51 50 48 46 44 45 47 47 48 49 50 50 50 49 49 49 48 48 49 51 51 50 49 48 46 45 43 43 43
52 52 51 53 53 54 55 56 56 54 52 48 45 44 45 45 46 45 47 48 48 48 47 46 46 46 45 45 46 46 46 46 45 45 43 42 43 42
51 51 51 51 52 52 52 52 53 53 52 43 42 43 43 44 44 43 43 43 45 45 44 44 44 43 44 44 44 44 44 44 43 42 41 42 41 40
48 50 49 50 49 50 50 50 50 51 50 47 40 41 42 43 42 41 38 38 41 42 43 43 43 43 43 42 41 41 40 41 41 40 41 40 39 37
45 46 46 46 47 47 47 47 47 47 46 44 40 40 40 42 40 38 35 36 39 42 42 41 40 39 39 38 38 38 39 38 37 37 37 37 36 35
41 41 41 42 43 45 45 45 45 45 44 43 40 39 39 40 39 35 32 29 27 28 31 30 33 34 35 34 35 35 35 34 33 34 34 34 34 35
39 39 39 40 42 44 44 43 43 43 43 42 40 38 37 37 37 35 33 27 25 24 24 26 26 25 29 31 31 30 30 31 32 32 33 35 35 35
37 37 37 38 39 41 42 42 42 41 41 40 39 38 37 37 36 34 30 26 28 25 22 22 24 22 24 28 30 30 29 30 30 33 34 34 34 35
37 37 37 37 37 38 37 37 38 39 41 39 39 38 37 35 35 32 30 28 27 25 20 20 24 22 25 27 32 31 29 30 31 33 34 34 34 34
36 36 37 37 36 37 34 33 31 30 31 37 37 38 37 35 35 34 30 26 25 25 23 18 24 23 26 27 33 30 29 30 33 33 33 34 32 32
35 35 35 35 35 37 32 31 30 30 32 34 34 34 34 35 31 29 27 26 23 22 24 24 25 24 25 26 27 28 28 30 32 33 33 32 31 31
32 31 31 36 35 36 29 28 28 29 30 30 30 30 31 33 30 27 27 27 23 21 24 22 24 23 22 25 26 25 27 32 32 32 31 30 30 30
30 30 29 31 35 36 33 26 25 28 31 28 27 27 27 27 26 26 26 24 21 20 26 23 22 22 20 23 24 25 25 25 25 26 28 29 30 30
30 28 28 30 32 34 33 33 30 30 28 27 26 26 25 25 26 26 26 26 26 24 28 23 21 21 19 20 21 23 23 23 24 24 23 27 27 27
29 27 29 29 30 33 30 30 28 29 24 24 24 23 25 25 25 24 25 26 26 27 24 22 22 18 19 17 18 21 21 22 23 21 22 23 23 23
34 30 29 27 29 30 31 28 25 27 26 22 21 24 25 25 24 23 22 22 22 23 25 22 22 21 20 20 19 20 20 19 20 22 22 22 22 22
31 26 24 23 26 27 27 26 25 26 26 23 22 22 24 24 24 23 22 22 20 21 22 24 24 23 22 21 19 20 20 20 20 21 22 21 21 22
32 28 25 23 23 25 26 26 25 26 25 25 23 23 23 23 23 23 22 21 21 20 21 23 25 24 24 23 24 21 20 20 21 23 23 20 21 22
34 30 27 25 24 23 25 25 24 24 26 26 24 23 24 24 25 23 23 22 21 21 21 21 21 21 18 13 17 25 21 21 22 22 22 21 21 20
33 31 28 26 25 24 24 24 25 25 25 25 25 25 24 23 24 24 23 23 22 22 21 20 20 20 19 16 13 17 25 22 22 21 21 22 22 22
32 30 29 27 26 25 25 25 25 24 23 24 25 25 24 24 23 24 24 24 24 22 21 21 20 22 21 20 18 18 19 25 23 21 19 19 19 19
32 30 29 28 28 27 26 26 25 25 24 23 23 23 24 24 24 23 24 23 25 24 22 23 21 23 21 20 18 18 18 19 23 25 24 22 18 15
33 32 30 30 30 28 28 27 26 25 24 24 24 22 23 23 23 24 23 23 22 24 25 22 20 21 21 21 21 20 20 20 20 19 20 22 22 24

GFSNE_sfc_30mbdewp_111.txt.gz
Dewpoint
57 57 56 56 56 57 57 57 54 51 50 51 49 46 47 47 49 49 50 52 52 51 50 50 50 49 49 50 52 52 52 51 50 48 47 46 46 46
52 52 51 52 52 53 54 54 53 52 49 51 48 46 46 46 47 47 49 50 50 49 48 48 48 47 47 47 49 50 51 51 50 48 46 45 46 44
51 51 49 50 51 51 52 52 52 52 50 47 44 44 44 45 46 45 46 45 47 47 46 45 45 45 46 45 46 46 47 47 46 45 45 45 44 41
48 49 48 48 49 49 49 50 50 50 49 48 43 42 43 44 44 43 40 41 43 44 44 44 45 45 44 44 44 44 43 43 43 42 43 43 42 39
44 45 44 45 46 46 46 47 47 47 47 45 42 41 41 43 42 40 37 38 40 44 44 43 43 42 42 40 40 41 41 41 40 42 41 40 39 37
41 41 41 42 42 44 45 45 45 45 45 44 41 40 40 41 40 37 35 33 32 31 35 36 38 39 39 39 39 38 37 37 36 37 37 36 35 35
39 39 39 40 40 42 44 44 43 43 43 43 41 39 38 38 38 37 35 32 29 28 29 29 29 30 32 34 33 32 33 33 33 33 34 34 35 36
37 38 38 38 39 40 42 42 42 42 41 41 40 39 39 38 38 36 32 30 30 27 26 26 25 24 26 30 31 30 29 30 31 33 35 35 36 36
37 37 37 37 37 37 37 37 36 37 40 41 39 39 38 37 37 35 32 31 31 27 24 24 24 23 25 26 31 31 31 31 32 34 34 34 35 35
36 36 37 37 37 37 36 34 33 31 33 33 38 38 38 37 37 36 34 28 26 25 24 25 24 22 26 28 34 31 30 31 32 32 34 35 34 33
35 35 35 36 36 37 34 32 31 31 33 36 36 36 36 37 34 32 30 29 26 24 24 24 24 25 26 26 30 31 29 29 32 33 33 34 33 32
32 32 32 33 37 37 33 29 28 29 30 29 29 30 32 34 32 30 31 31 27 26 25 25 25 25 24 26 28 29 31 32 33 34 33 33 32 31
33 31 30 32 33 36 35 29 27 28 31 28 27 28 28 28 26 27 28 30 27 25 26 26 26 25 25 25 26 27 27 28 29 30 32 31 31 31
34 31 28 31 32 34 34 34 33 29 29 27 26 26 26 27 27 28 27 28 28 26 29 26 25 26 24 24 24 25 25 25 25 26 26 27 29 30
34 31 30 30 30 31 33 33 32 30 26 25 25 25 26 27 27 26 28 28 28 28 27 25 25 23 24 24 22 24 24 25 25 26 26 26 26 26
37 33 31 29 29 29 31 30 27 28 27 26 24 26 26 26 25 25 25 25 26 26 26 25 24 24 23 23 23 23 24 23 24 24 25 25 26 25
33 29 28 26 25 26 28 28 26 25 27 26 25 24 25 25 25 25 24 24 23 23 24 25 25 25 24 24 22 22 23 23 24 25 24 24 25 25
32 29 28 27 25 24 25 26 26 26 26 27 25 25 24 25 25 25 24 24 23 22 23 25 26 25 24 24 25 23 22 22 23 24 24 23 22 24
34 32 30 29 27 26 25 25 25 26 27 27 27 26 25 25 25 24 24 24 24 23 23 24 25 23 21 17 20 26 23 23 23 23 23 23 22 23
34 33 32 30 28 27 26 26 25 25 26 26 27 26 26 25 25 25 24 24 24 24 23 23 23 23 21 19 17 20 25 24 23 22 22 23 23 24
34 33 32 30 29 28 27 27 26 26 26 25 26 26 26 26 25 25 25 24 24 24 23 23 23 24 24 22 20 20 21 25 25 24 23 22 19 19
33 33 32 31 30 30 28 27 26 26 27 26 25 25 25 25 25 25 25 24 25 25 24 25 25 25 23 22 21 20 19 21 23 26 25 22 21 18
32 33 32 31 31 31 30 28 27 27 27 26 26 25 25 24 25 25 25 24 24 25 26 24 23 24 23 22 22 22 20 21 21 21 22 25 26 26

GFSNE_sfc_30mbdewp_114.txt.gz
Dewpoint
57 57 57 57 56 57 57 56 53 48 47 49 52 49 50 50 50 51 52 53 53 52 52 51 51 50 51 52 52 53 56 57 57 53 50 49 49 49
55 54 52 52 52 53 53 52 52 52 47 50 51 49 49 48 49 50 50 51 51 51 50 49 48 48 48 49 51 52 52 52 51 50 49 49 48 47
52 51 50 49 50 50 51 51 51 51 50 50 49 47 47 48 47 47 48 48 49 49 48 47 46 46 47 47 48 50 51 51 51 50 49 48 47 44
48 48 47 47 48 49 49 49 50 50 49 48 47 45 46 46 46 45 43 43 45 46 46 45 46 46 46 46 45 45 46 48 48 48 48 47 44 42
46 46 46 46 46 47 46 47 47 47 47 47 45 42 43 44 43 41 40 40 42 45 45 45 45 44 43 43 43 43 43 42 44 45 45 44 41 40
43 43 43 43 44 44 45 45 44 45 46 45 43 42 42 42 42 39 37 37 36 37 40 41 42 41 41 40 42 41 40 40 41 41 41 40 38 37
41 40 41 41 40 42 42 43 42 42 43 44 42 41 40 39 39 38 37 35 33 33 33 33 33 35 36 39 38 37 36 36 35 37 37 36 36 36
39 39 39 39 40 40 42 42 42 41 41 42 41 40 40 39 39 37 34 33 34 31 31 30 28 29 30 33 33 30 31 33 33 34 34 34 35 36
38 39 38 38 38 38 38 37 37 37 38 39 40 40 40 39 38 36 34 33 34 29 29 29 26 26 26 26 31 31 30 31 31 33 36 36 36 36
37 37 37 37 37 38 38 37 36 34 33 36 34 36 38 38 38 38 36 31 28 26 26 29 26 25 26 26 34 32 32 32 33 34 35 35 35 36
35 36 36 36 37 37 37 35 34 33 32 36 36 37 37 37 37 34 33 31 29 26 24 26 26 26 26 25 30 33 31 31 32 33 34 35 35 34
34 34 33 34 36 37 37 34 32 31 31 30 30 31 32 35 33 31 33 33 30 29 27 25 26 27 26 27 30 31 30 30 31 33 34 34 34 32
35 34 32 33 33 36 37 34 32 28 30 29 28 28 28 28 28 28 30 33 31 31 28 29 30 27 30 27 27 30 30 31 32 34 34 34 33 32
36 35 32 31 33 33 35 35 34 30 28 27 27 27 27 28 29 29 29 30 30 30 29 31 29 30 30 27 26 27 28 29 29 30 31 31 32 32
37 36 32 31 31 31 33 33 34 31 28 26 26 27 28 30 30 30 30 31 31 31 31 28 31 30 30 30 27 26 27 27 28 29 30 30 30 29
37 36 34 32 30 28 28 32 30 28 27 27 27 27 28 29 28 29 29 29 29 28 28 28 28 28 27 27 27 26 28 27 28 28 28 28 28 28
34 32 30 29 28 27 27 27 28 27 26 27 27 27 26 26 26 28 28 28 27 27 27 27 27 28 28 28 25 26 25 26 27 27 27 26 27 27
33 31 30 29 28 28 26 25 25 26 26 27 28 28 27 27 27 27 27 26 26 25 26 27 26 25 26 26 26 25 24 26 26 27 26 25 25 26
36 33 32 31 30 29 29 28 28 26 30 30 29 29 29 28 27 26 26 26 25 26 26 26 26 25 23 21 24 27 26 25 25 25 25 24 23 25
36 34 33 32 31 30 29 30 30 29 29 29 30 30 29 28 27 26 26 25 25 26 26 26 25 25 24 23 24 24 27 26 25 24 24 24 24 24
35 34 34 33 32 30 31 32 32 31 31 30 29 29 29 29 27 27 27 26 25 25 25 25 26 26 28 24 20 20 23 26 26 26 25 23 22 21
34 34 34 33 32 32 32 32 32 31 30 30 29 30 29 29 27 27 26 26 25 26 26 27 28 27 25 23 21 22 22 23 26 26 26 24 24 21
33 33 33 33 33 32 32 31 30 31 31 30 30 30 29 28 27 26 25 26 26 26 27 26 27 26 25 24 24 24 23 22 21 21 24 26 26 25

GFSNE_sfc_30mbdewp_117.txt.gz
Dewpoint
60 58 57 57 57 57 56 56 54 49 47 48 52 51 51 51 51 51 51 53 53 53 53 52 51 51 52 52 53 52 54 58 58 57 57 53 53 53
57 57 56 54 53 53 53 52 52 51 48 48 52 51 50 49 50 50 51 51 52 52 51 51 50 49 49 50 51 52 52 54 57 57 54 52 52 50
53 52 51 50 50 51 51 51 50 50 49 49 50 50 49 49 48 48 49 49 50 50 49 48 47 47 47 48 49 51 52 52 52 53 53 52 50 48
50 49 48 48 48 49 50 49 49 49 49 46 48 47 47 47 47 46 45 44 46 47 47 46 46 47 47 47 46 46 50 51 51 51 52 50 48 46
47 47 47 46 47 48 48 47 46 46 46 47 46 44 44 44 44 42 41 42 42 45 46 46 47 46 45 45 45 45 44 45 46 48 50 47 46 43
45 45 44 44 44 45 45 45 44 44 44 44 45 44 43 43 43 41 39 38 38 39 43 44 44 44 43 43 44 42 41 42 44 44 44 43 42 40
43 42 43 41 40 42 42 43 42 42 41 42 41 42 41 40 40 40 38 36 36 36 36 37 37 38 40 41 40 39 38 38 40 41 40 39 37 38
40 40 40 39 40 40 42 41 42 41 40 40 40 40 40 40 40 38 36 35 36 35 35 34 31 33 33 36 35 35 36 35 35 36 36 36 36 38
40 40 39 38 38 39 39 38 38 37 37 38 38 39 40 40 39 37 36 35 36 32 33 33 28 28 29 31 33 32 31 32 34 34 35 35 36 37
38 38 38 38 38 38 38 38 38 37 35 36 36 35 35 37 38 38 37 34 29 28 30 31 28 27 27 26 31 32 31 31 32 33 36 36 36 37
36 37 37 37 37 37 38 36 36 35 33 36 35 35 36 38 39 36 34 32 31 29 26 28 26 27 27 27 32 34 33 32 33 34 35 35 36 36
35 35 35 35 37 38 37 36 34 33 31 32 31 31 32 32 33 31 34 33 31 30 28 26 26 27 26 28 30 33 32 32 32 33 34 35 35 34
35 34 34 35 34 35 37 37 34 31 30 31 29 28 29 29 28 28 30 34 32 33 29 30 29 28 32 27 29 32 31 32 32 33 34 34 36 34
36 36 34 32 33 34 35 35 36 34 31 28 27 27 28 28 30 30 30 31 31 31 31 32 30 29 29 27 26 29 30 31 31 32 33 35 35 34
38 37 35 32 32 32 33 34 34 35 32 28 27 27 29 32 30 30 31 31 31 31 31 29 31 31 31 29 27 27 28 29 29 31 31 31 31 32
38 38 37 34 33 30 29 30 33 32 30 29 28 29 30 30 29 30 30 30 29 29 29 28 28 29 27 30 29 28 29 27 29 30 31 31 31 30
37 35 34 32 30 29 29 28 29 30 28 28 27 28 28 28 28 29 29 28 27 27 27 28 28 29 29 28 25 28 28 28 29 29 29 28 29 29
34 32 32 31 30 29 28 27 27 27 27 28 29 29 28 28 28 28 28 27 27 27 28 27 27 26 26 26 28 27 27 27 28 29 28 27 27 29
34 33 32 32 30 30 29 29 29 28 29 30 30 30 30 28 28 28 26 27 26 27 27 28 27 26 24 22 27 28 26 27 28 27 27 26 25 27
36 35 34 33 32 32 31 30 31 31 30 30 30 30 30 29 27 26 27 26 26 26 27 28 27 26 25 25 25 25 28 28 26 26 26 27 26 26
36 35 35 34 33 32 31 31 32 33 32 31 30 30 30 29 28 28 28 27 26 26 26 26 27 28 29 25 21 21 25 28 28 27 27 25 24 24
35 35 35 34 34 33 32 33 33 32 32 31 30 29 29 29 28 27 27 27 26 26 26 27 29 28 27 24 22 22 24 25 27 27 28 26 24 19
33 33 34 34 34 33 32 32 31 31 31 31 31 30 29 28 28 28 27 27 26 27 27 27 28 27 26 25 24 24 25 23 24 24 26 27 27 27

GFSNE_sfc_30mbdewp_120.txt.gz
Dewpoint
60 60 58 57 57 57 56 56 54 49 47 49 51 50 51 51 51 51 51 53 53 53 53 53 52 52 52 52 52 52 53 54 58 59 59 57 56 53
58 57 56 55 54 54 53 52 51 51 47 49 50 50 50 49 50 49 50 51 52 52 51 51 50 50 49 50 50 51 52 53 57 59 58 56 54 56
56 55 53 52 51 51 51 50 50 50 48 48 50 49 48 48 48 48 49 49 50 50 50 49 48 48 48 49 49 51 52 52 53 57 57 56 55 50
53 51 50 49 48 49 50 49 48 48 48 46 47 46 46 46 46 46 45 44 46 48 48 47 48 47 48 47 47 48 51 51 52 53 52 51 50 49
50 49 48 47 47 48 47 46 46 46 46 45 45 45 44 44 44 43 41 42 42 44 47 47 48 47 46 46 46 45 46 47 48 52 51 49 49 48
46 46 45 45 45 46 46 45 44 44 43 43 43 44 43 43 43 42 40 39 39 40 44 46 47 45 45 44 44 43 43 45 47 49 48 47 45 44
43 43 43 41 42 42 42 43 42 41 41 40 39 41 41 40 40 41 39 38 37 37 39 40 40 41 42 43 41 40 40 42 43 43 43 42 40 40
40 40 39 39 40 41 42 42 41 40 39 39 39 38 38 39 40 39 37 36 37 36 37 37 35 36 35 38 39 39 37 38 39 41 40 39 38 39
40 39 39 39 39 40 40 39 39 38 39 38 37 37 38 39 39 38 37 36 36 35 35 35 31 32 32 33 37 34 35 36 36 36 36 36 37 39
39 39 39 38 39 38 38 38 38 38 36 36 36 35 36 36 37 38 37 36 32 30 33 34 29 30 30 28 34 35 34 32 34 34 36 37 37 38
38 38 38 37 38 38 37 36 36 36 35 37 35 35 35 37 39 37 35 33 33 32 28 30 28 29 29 28 31 34 33 32 33 33 36 37 37 37
36 36 37 36 39 38 36 36 35 33 31 31 31 30 31 31 33 32 34 33 33 32 30 29 27 28 27 29 30 32 34 34 33 34 35 36 36 36
35 34 35 36 36 36 38 36 35 33 31 30 29 28 28 28 28 28 30 33 33 33 31 29 28 28 32 26 28 31 32 31 32 32 34 35 35 35
36 35 34 35 34 35 35 36 37 35 31 29 27 27 27 27 29 29 30 31 31 32 32 33 30 28 28 26 23 28 30 31 32 32 33 35 35 36
37 36 35 34 33 33 34 35 34 34 33 30 27 26 27 30 30 29 30 30 30 31 32 31 32 32 30 26 26 27 28 29 29 31 31 33 34 35
39 38 38 36 34 33 31 32 33 33 33 30 28 28 29 28 26 29 29 29 29 28 28 28 29 30 28 29 27 25 27 25 28 29 30 31 31 31
38 37 36 35 33 31 30 29 29 31 30 28 27 27 28 28 28 28 27 27 26 25 26 27 28 28 29 27 26 27 27 28 28 28 29 29 29 30
36 34 34 33 32 31 30 29 28 28 28 28 27 27 27 27 26 27 27 26 25 25 27 27 26 25 25 25 28 24 27 27 27 29 28 27 27 28
35 33 32 32 31 30 30 29 29 28 27 26 26 27 27 28 28 26 26 25 25 25 26 27 26 24 22 19 26 29 26 27 27 27 27 27 25 26
35 34 33 33 32 31 31 31 31 30 30 29 28 28 28 28 27 25 25 24 24 24 25 27 26 25 23 23 25 24 29 26 27 26 26 27 27 27
36 35 35 34 33 33 32 32 31 31 31 30 28 28 28 28 27 26 25 26 26 25 24 26 26 27 26 25 24 21 23 29 28 26 27 26 24 24
35 35 35 35 34 34 33 32 32 32 32 32 31 30 29 28 27 26 26 26 26 25 25 24 25 27 26 26 23 22 23 25 28 29 29 26 23 17
33 34 34 34 34 34 33 32 32 32 32 32 31 31 30 29 28 28 27 27 26 26 25 25 27 26 26 25 24 23 23 24 24 23 26 27 28 29

GFSNE_sfc_30mbdewp_123.txt.gz
Dewpoint
60 60 58 57 57 57 56 55 53 48 47 50 49 50 50 50 50 50 51 52 53 53 53 53 52 52 52 51 51 51 52 52 54 56 58 59 57 56
59 58 56 56 55 55 54 53 52 51 47 49 49 49 49 49 49 49 50 51 51 52 52 51 51 50 49 49 49 50 52 52 54 55 58 59 57 56
57 57 55 53 52 52 52 51 50 49 47 47 49 48 47 47 48 48 48 47 49 50 50 50 49 48 48 49 49 50 52 52 53 52 58 57 56 56
56 55 53 51 50 50 50 49 49 49 47 46 46 45 45 45 45 46 45 44 45 47 49 48 48 48 48 47 47 48 48 50 52 52 51 53 53 51
54 53 50 48 48 48 48 47 47 46 46 45 44 45 44 44 43 43 42 42 43 43 46 48 48 48 47 46 46 45 46 48 49 52 51 51 51 50
52 50 48 47 47 47 46 45 45 44 43 43 43 43 43 42 42 41 41 40 40 40 43 45 48 47 45 45 44 43 43 46 49 50 50 49 49 48
46 45 44 44 45 45 44 44 43 42 42 41 40 40 40 39 39 41 39 38 38 38 40 41 42 43 43 44 42 41 41 43 45 46 46 46 46 47
43 42 41 41 42 43 43 42 42 41 40 39 38 37 38 38 39 39 38 37 38 37 37 38 37 38 39 41 41 40 39 39 42 43 43 42 41 42
41 40 39 39 40 41 41 40 40 40 40 39 37 37 37 39 39 37 37 36 37 36 36 36 34 36 36 35 39 37 37 37 37 39 40 40 40 41
40 40 39 39 39 39 39 38 38 38 37 37 36 35 35 35 36 36 37 36 35 32 35 35 31 32 32 32 36 38 36 34 35 36 37 37 38 40
39 39 38 38 40 39 38 36 36 36 37 37 37 36 36 36 37 37 35 34 34 33 31 32 30 30 29 29 29 35 36 34 33 34 35 37 38 39
37 38 38 37 40 39 36 36 35 33 33 32 32 31 32 32 34 34 35 34 34 33 31 31 29 28 28 29 30 31 34 36 34 34 34 37 37 37
35 36 36 39 40 39 37 36 35 33 32 30 29 29 28 28 29 28 30 33 33 33 32 30 29 29 31 26 28 30 31 32 33 33 35 36 36 36
35 35 35 38 37 36 37 38 38 36 32 30 29 28 27 27 28 28 29 30 31 33 33 33 32 29 30 27 24 27 29 30 31 31 31 34 35 37
36 36 35 37 35 35 35 35 36 36 33 31 29 28 27 27 29 28 30 30 29 30 32 33 33 33 30 28 25 26 29 29 30 30 31 32 33 35
38 37 36 35 35 33 33 33 34 33 33 32 30 29 27 28 27 27 27 28 28 27 28 27 30 32 30 31 28 26 27 24 28 28 30 31 32 33
39 37 37 36 34 33 32 30 29 30 32 32 29 28 28 27 27 26 27 26 25 24 25 26 27 27 28 26 26 27 26 27 27 28 29 29 30 31
38 35 35 35 34 33 32 31 30 30 30 30 28 27 27 27 26 26 27 26 24 23 23 26 26 24 23 24 28 24 26 26 27 28 28 27 28 29
36 35 34 34 33 33 32 31 30 29 30 28 28 26 26 26 27 26 26 25 24 23 24 25 26 23 20 18 23 29 25 26 27 27 28 27 26 26
35 32 32 32 32 32 32 31 30 30 29 28 27 26 25 26 26 26 25 25 24 22 23 24 24 24 22 20 23 24 29 26 27 26 26 27 28 28
32 32 32 32 32 32 33 32 31 31 31 30 30 28 27 27 27 26 25 25 25 24 23 23 26 27 23 25 24 23 23 29 28 26 26 25 25 24
34 33 33 33 33 33 34 33 33 32 32 32 31 30 28 27 27 27 25 25 25 25 24 24 23 25 27 24 23 22 22 24 28 29 28 26 24 20
32 32 33 34 34 34 33 33 32 32 32 32 32 31 31 29 29 29 27 26 26 25 25 24 24 24 26 26 25 23 23 23 23 23 27 29 29 29

GFSNE_sfc_30mbdewp_126.txt.gz
Dewpoint
59 60 59 59 58 57 56 53 51 48 48 50 49 50 50 50 49 49 50 51 53 53 53 53 53 52 52 51 50 50 51 52 52 53 54 57 59 56
60 59 58 57 57 56 56 54 53 50 45 48 49 49 49 49 49 48 49 50 50 52 52 51 51 50 49 49 49 50 51 51 52 52 56 57 59 57
59 58 57 55 54 54 53 52 51 51 48 47 48 47 47 47 46 47 47 46 47 49 50 50 49 49 49 49 48 49 50 51 51 52 54 57 58 57
57 56 54 53 52 52 51 50 49 49 47 45 45 45 44 44 44 44 44 44 44 45 48 49 48 48 49 47 47 47 48 49 51 52 51 53 56 56
56 55 53 51 49 49 49 48 48 47 46 45 43 44 43 43 42 42 42 42 42 43 44 46 48 48 48 46 46 45 45 48 51 51 51 52 51 50
55 54 52 50 49 49 48 47 46 46 45 43 42 42 42 42 41 40 40 40 40 40 41 44 46 48 47 45 45 43 44 46 49 51 50 50 50 49
53 52 50 49 49 48 47 46 45 44 42 42 41 40 40 39 38 40 39 39 38 38 39 40 42 43 44 45 42 42 42 44 46 47 48 48 48 48
49 47 46 47 47 47 46 45 44 43 41 40 39 38 37 38 39 38 38 36 36 36 37 38 38 40 40 42 43 42 41 40 42 44 44 43 43 47
46 44 43 43 43 43 44 43 43 42 40 39 38 38 37 38 38 37 36 36 36 36 36 36 35 37 38 37 41 41 39 38 38 41 42 42 42 43
44 43 41 40 41 41 40 39 39 39 39 38 38 37 37 36 36 36 36 36 36 35 35 35 32 34 34 35 37 40 39 37 36 37 38 40 40 42
41 40 39 39 40 41 38 37 37 37 38 37 37 37 37 37 37 37 35 34 33 34 32 34 32 31 30 31 31 37 39 38 36 35 36 37 39 41
39 39 39 38 41 40 37 36 35 35 36 35 33 33 33 34 35 36 36 34 34 34 32 33 30 29 30 29 30 31 34 37 36 35 34 36 38 38
38 38 40 41 41 40 37 36 35 34 34 32 30 29 29 29 29 29 30 34 33 33 33 30 30 29 30 29 28 30 31 32 34 35 35 35 38 37
36 36 36 40 41 40 38 37 37 34 32 30 30 29 28 27 27 28 28 29 32 33 34 33 31 29 31 29 28 27 29 30 31 31 32 33 37 36
38 38 37 39 39 38 38 38 38 34 32 31 30 29 27 26 27 28 29 29 28 30 32 32 32 32 30 30 27 26 27 29 29 30 30 30 32 34
38 38 37 38 37 35 36 36 35 35 33 32 31 30 27 28 28 27 26 26 27 26 28 27 30 32 31 31 30 28 26 24 27 29 30 30 31 32
40 37 36 35 34 34 32 32 32 33 33 32 31 30 29 28 27 25 25 25 24 23 24 26 27 27 28 28 27 28 27 26 26 27 28 29 30 32
39 36 36 35 35 34 33 32 31 31 30 32 31 30 29 27 27 26 25 26 25 24 22 23 26 24 23 24 27 24 24 25 26 27 28 27 28 29
37 35 34 33 33 34 34 33 32 32 32 31 30 30 28 26 27 25 26 26 24 23 23 23 25 22 20 17 20 28 23 24 26 27 28 27 26 26
35 34 33 32 32 32 32 32 32 32 31 31 31 30 27 26 25 26 25 24 24 23 22 21 24 23 22 20 21 24 28 25 25 26 26 27 28 28
33 33 32 32 32 32 32 32 32 32 32 31 31 30 28 26 25 26 26 26 25 24 22 22 23 26 23 24 24 23 23 28 27 25 25 25 25 25
32 33 33 32 32 32 32 32 31 32 31 31 31 31 30 28 28 28 26 25 26 25 24 23 22 25 26 24 22 23 22 23 25 29 28 26 24 20
30 31 31 32 32 32 32 31 31 32 32 32 31 31 30 28 28 28 27 26 26 25 24 24 23 23 25 25 24 23 23 23 24 24 27 29 29 29